GEFSSGP_prec_meanprecacc_192.txt.gz
Total_Precipitation_Accumulation
1.50 1.77 2.55 3.13 3.13 2.51 1.93 1.40 1.10 1.11 1.03 0.81 0.59 0.55 0.81 1.19 1.53 1.95 2.02 1.69 1.19 1.05 1.12 1.52 1.78 1.61 1.38 1.33 1.34 1.34 1.30 1.31 1.29 1.24 1.25 1.00 0.87 0.81 0.76 0.75 0.71 0.64 0.57 0.58 0.66 0.68 0.62 0.50 0.48
1.28 2.20 3.11 3.56 2.89 2.01 1.72 1.35 1.30 1.14 0.83 0.63 0.50 0.47 0.66 0.71 0.58 1.09 1.97 1.96 1.22 1.07 1.10 1.32 1.70 1.55 1.38 1.37 1.38 1.40 1.42 1.39 1.39 1.31 1.12 0.87 0.85 0.84 0.81 0.81 0.80 0.74 0.61 0.56 0.58 0.62 0.59 0.55 0.55
1.43 2.55 3.21 3.25 2.10 1.71 1.66 1.48 1.34 0.95 0.65 0.56 0.53 0.44 0.58 0.82 0.85 1.21 1.79 1.47 1.09 1.05 1.13 1.49 1.69 1.49 1.37 1.29 1.31 1.44 1.49 1.45 1.38 1.25 0.98 0.84 0.83 0.85 0.86 0.87 0.83 0.76 0.71 0.62 0.58 0.58 0.53 0.53 0.52
1.77 2.71 2.85 2.38 1.83 1.44 1.36 1.41 1.11 0.85 0.64 0.46 0.46 0.50 0.56 0.88 1.03 1.16 1.21 1.12 0.97 0.96 1.04 1.30 1.58 1.45 1.32 1.27 1.28 1.24 1.17 1.20 1.27 1.16 0.95 0.83 0.87 0.87 0.85 0.79 0.75 0.74 0.72 0.68 0.65 0.60 0.56 0.55 0.50
2.35 2.91 2.62 2.05 1.69 1.43 1.20 1.07 0.92 0.89 0.76 0.57 0.50 0.63 0.81 1.18 1.25 1.28 1.19 1.10 0.99 0.97 0.94 1.08 1.31 1.26 1.18 1.24 1.31 1.30 1.16 1.16 1.18 1.12 1.03 0.89 0.84 0.87 0.86 0.74 0.64 0.62 0.63 0.61 0.61 0.58 0.55 0.51 0.51
2.68 2.76 2.61 2.19 1.70 1.45 1.23 0.93 0.81 0.81 0.74 0.64 0.60 0.77 1.12 1.54 1.57 1.62 1.30 1.23 1.20 1.00 0.90 0.90 1.05 1.04 1.00 1.10 1.34 1.42 1.17 1.17 1.12 0.98 0.91 0.86 0.75 0.75 0.74 0.69 0.67 0.63 0.62 0.63 0.60 0.55 0.51 0.50 0.50
2.75 2.65 2.39 1.92 1.68 1.64 1.35 0.85 0.74 0.75 0.74 0.65 0.60 0.81 1.25 1.75 1.71 1.53 1.31 1.19 1.22 1.08 0.96 0.89 0.88 0.90 0.98 1.11 1.10 1.09 1.13 1.23 1.16 0.93 0.83 0.82 0.69 0.60 0.59 0.61 0.63 0.63 0.66 0.69 0.63 0.54 0.48 0.51 0.54
2.11 2.32 2.31 2.12 1.88 1.88 1.24 0.76 0.58 0.58 0.67 0.49 0.49 0.76 1.16 1.49 1.40 1.39 1.29 1.19 1.18 1.05 0.92 0.82 0.79 0.81 0.85 0.96 1.02 0.99 0.99 1.06 1.06 0.94 0.89 0.87 0.71 0.59 0.59 0.58 0.62 0.66 0.69 0.75 0.71 0.60 0.54 0.55 0.58
1.90 2.25 2.55 2.45 1.87 1.65 1.08 0.84 0.59 0.49 0.49 0.45 0.47 0.56 0.76 0.84 0.88 1.06 1.10 1.02 1.06 0.94 0.85 0.79 0.72 0.73 0.78 0.86 0.89 0.99 1.00 1.02 0.95 0.88 0.91 0.80 0.59 0.55 0.58 0.54 0.67 0.77 0.91 0.93 0.85 0.75 0.67 0.61 0.55
2.04 2.30 2.27 1.80 1.30 1.15 1.06 0.89 0.61 0.64 0.69 0.63 0.59 0.60 0.81 0.84 0.86 1.03 1.02 0.97 0.95 0.93 0.84 0.77 0.76 0.71 0.70 0.74 0.98 1.14 1.01 0.91 0.80 0.82 0.80 0.78 0.75 0.72 0.53 0.54 0.71 0.78 0.87 0.91 0.85 0.81 0.67 0.51 0.42
1.49 1.72 1.61 1.34 0.92 0.86 0.88 0.72 0.55 0.74 0.90 0.72 0.69 0.72 0.83 0.90 0.93 0.98 1.04 1.00 0.91 0.89 0.81 0.72 0.69 0.62 0.60 0.73 0.91 1.08 1.13 1.09 1.05 0.90 0.90 0.86 0.77 0.66 0.52 0.49 0.54 0.60 0.69 0.68 0.75 0.74 0.54 0.44 0.45
1.25 1.16 1.17 1.16 0.80 0.83 0.85 0.67 0.69 0.78 0.78 0.58 0.55 0.57 0.72 0.83 0.85 0.88 0.94 0.93 0.79 0.75 0.79 0.70 0.64 0.58 0.54 0.53 0.64 0.79 0.84 0.83 0.84 0.85 0.79 0.80 0.82 0.75 0.64 0.59 0.62 0.65 0.64 0.71 0.77 0.76 0.62 0.53 0.45
1.32 1.17 1.03 1.05 0.89 0.85 0.84 0.68 0.68 0.80 0.65 0.55 0.57 0.61 0.73 0.80 0.82 0.76 0.71 0.72 0.71 0.71 0.71 0.71 0.67 0.62 0.67 0.63 0.59 0.57 0.62 0.68 0.73 0.80 0.72 0.67 0.70 0.73 0.75 0.69 0.74 0.70 0.69 0.71 0.74 0.62 0.61 0.61 0.52
1.12 1.08 1.13 1.13 1.05 0.87 0.92 0.76 0.74 0.92 0.73 0.66 0.66 0.69 0.70 0.76 0.76 0.67 0.61 0.56 0.54 0.66 0.74 0.74 0.66 0.67 0.64 0.59 0.61 0.63 0.63 0.66 0.69 0.73 0.66 0.60 0.60 0.63 0.74 0.73 0.78 0.69 0.71 0.79 0.73 0.67 0.70 0.70 0.61
0.90 1.15 1.25 1.14 1.07 0.99 0.98 1.05 0.93 0.95 0.84 0.78 0.72 0.71 0.73 0.76 0.73 0.69 0.63 0.55 0.49 0.53 0.66 0.75 0.72 0.73 0.68 0.63 0.65 0.68 0.67 0.63 0.66 0.69 0.62 0.58 0.61 0.62 0.75 0.79 0.78 0.75 0.78 0.82 0.85 0.86 0.81 0.72 0.64
1.05 1.29 1.55 1.20 1.09 0.99 1.10 1.29 1.05 1.04 0.99 0.85 0.68 0.69 0.68 0.69 0.69 0.71 0.65 0.56 0.51 0.48 0.57 0.68 0.69 0.74 0.76 0.75 0.75 0.72 0.68 0.68 0.72 0.75 0.70 0.66 0.64 0.67 0.87 0.92 0.82 0.87 0.97 1.01 1.05 1.02 0.93 0.84 0.80
1.36 1.42 1.36 1.21 1.00 0.90 1.04 1.13 1.04 1.06 1.03 0.91 0.68 0.57 0.56 0.56 0.60 0.66 0.60 0.53 0.50 0.49 0.52 0.57 0.63 0.83 0.84 0.79 0.85 0.86 0.82 0.87 0.90 0.92 0.89 0.84 0.81 0.89 1.06 1.13 1.04 1.02 1.18 1.16 1.05 1.08 1.11 1.03 1.03
1.15 1.00 0.94 1.04 0.88 0.84 0.96 0.91 0.95 0.97 0.91 0.83 0.68 0.53 0.50 0.50 0.51 0.49 0.46 0.44 0.42 0.44 0.44 0.50 0.60 0.74 0.83 0.97 1.05 1.13 1.13 1.13 1.24 1.30 1.29 1.12 1.07 1.13 1.28 1.38 1.34 1.30 1.43 1.43 1.30 1.40 1.41 1.32 1.35
0.76 0.76 0.83 0.83 0.69 0.76 0.84 0.81 0.87 0.86 0.82 0.70 0.60 0.50 0.46 0.43 0.43 0.39 0.35 0.35 0.34 0.34 0.36 0.42 0.60 0.77 0.91 1.02 1.15 1.40 1.56 1.65 1.64 1.64 1.70 1.62 1.44 1.52 1.64 1.61 1.82 1.89 1.88 1.88 1.82 1.94 1.97 1.71 1.53
0.69 0.73 0.79 0.74 0.61 0.66 0.73 0.76 0.80 0.77 0.70 0.57 0.52 0.46 0.39 0.36 0.35 0.33 0.27 0.26 0.25 0.24 0.29 0.35 0.50 0.75 0.98 1.18 1.35 1.53 1.85 2.01 2.01 2.07 2.01 1.96 1.85 1.87 1.79 1.87 2.08 2.13 2.25 2.34 2.18 2.31 2.39 2.08 1.78
0.62 0.63 0.67 0.65 0.67 0.67 0.68 0.79 0.84 0.83 0.70 0.54 0.43 0.38 0.33 0.28 0.30 0.31 0.27 0.23 0.19 0.19 0.22 0.27 0.41 0.64 0.93 1.23 1.47 1.66 1.90 2.16 2.25 2.15 2.10 2.13 2.22 2.26 2.15 2.11 2.23 2.25 2.33 2.53 2.57 2.52 2.63 2.55 2.22
0.71 0.46 0.45 0.49 0.61 0.77 0.66 0.93 0.85 0.81 0.73 0.59 0.49 0.41 0.35 0.30 0.28 0.27 0.25 0.26 0.22 0.22 0.23 0.26 0.41 0.57 0.77 1.02 1.35 1.60 1.85 2.16 2.23 2.21 2.18 2.22 2.33 2.42 2.38 2.33 2.39 2.40 2.35 2.48 2.57 2.55 2.77 2.96 2.69
0.55 0.36 0.39 0.48 0.50 0.55 0.51 0.75 0.81 0.68 0.73 0.65 0.57 0.49 0.39 0.33 0.31 0.27 0.24 0.26 0.28 0.28 0.28 0.35 0.48 0.62 0.79 1.01 1.33 1.65 1.83 1.99 2.19 2.21 2.12 2.05 2.12 2.14 2.12 2.24 2.39 2.41 2.38 2.40 2.59 2.70 2.88 2.88 2.80
0.40 0.41 0.43 0.46 0.48 0.57 0.40 0.56 0.74 0.67 0.63 0.62 0.56 0.52 0.41 0.30 0.29 0.31 0.33 0.33 0.34 0.38 0.41 0.49 0.61 0.80 0.94 1.01 1.14 1.31 1.52 1.79 1.92 2.03 2.06 2.07 2.07 1.95 1.88 1.98 2.09 2.18 2.23 2.22 2.28 2.44 2.58 2.76 2.91
0.37 0.54 0.70 0.71 0.69 0.61 0.32 0.46 0.59 0.51 0.46 0.52 0.50 0.48 0.44 0.40 0.40 0.46 0.53 0.49 0.47 0.50 0.60 0.67 0.74 0.82 0.87 0.85 0.90 1.02 1.18 1.40 1.53 1.62 1.81 1.89 1.92 1.87 1.82 1.80 1.87 1.95 2.00 2.10 2.27 2.26 2.29 2.47 2.68
0.36 0.45 0.67 0.75 0.66 0.54 0.43 0.57 0.59 0.48 0.42 0.45 0.46 0.41 0.40 0.45 0.51 0.64 0.75 0.77 0.73 0.71 0.73 0.71 0.73 0.70 0.70 0.72 0.78 0.84 0.90 1.04 1.15 1.23 1.38 1.51 1.51 1.49 1.48 1.54 1.64 1.79 1.89 1.98 2.13 2.18 2.13 2.21 2.28
0.32 0.27 0.28 0.43 0.42 0.49 0.52 0.63 0.63 0.46 0.40 0.43 0.45 0.41 0.41 0.54 0.66 0.81 0.93 0.99 0.94 0.86 0.79 0.76 0.77 0.74 0.67 0.67 0.74 0.80 0.84 0.84 0.88 0.92 0.91 0.99 1.07 1.10 1.15 1.23 1.37 1.56 1.70 1.76 1.87 2.01 2.00 2.06 2.06
0.21 0.22 0.27 0.48 0.65 0.69 0.59 0.65 0.73 0.60 0.48 0.50 0.54 0.59 0.66 0.81 0.87 0.98 1.05 1.03 1.01 1.06 1.01 0.84 0.79 0.80 0.74 0.81 0.81 0.77 0.75 0.73 0.72 0.76 0.81 0.82 0.90 1.00 1.09 1.12 1.19 1.32 1.41 1.51 1.69 1.83 1.90 1.93 1.91
0.18 0.23 0.35 0.54 0.60 0.81 0.93 0.99 0.77 0.63 0.62 0.63 0.68 0.85 0.91 1.00 1.06 1.07 1.14 1.07 0.93 0.94 0.92 0.90 0.86 0.82 0.84 0.86 0.86 0.76 0.73 0.73 0.73 0.70 0.74 0.82 0.90 1.00 1.06 1.10 1.14 1.17 1.26 1.31 1.43 1.58 1.71 1.75 1.76
0.30 0.42 0.55 0.84 0.82 0.77 1.06 1.21 0.84 0.70 0.71 0.74 0.74 0.72 0.73 0.91 1.01 1.02 1.09 1.00 0.85 0.80 0.71 0.75 0.83 0.85 0.93 0.93 0.85 0.76 0.75 0.78 0.84 0.82 0.76 0.79 0.85 0.86 0.97 1.09 1.06 1.06 1.11 1.19 1.31 1.41 1.46 1.56 1.54

GEFSSGP_prec_meanprecacc_198.txt.gz
Total_Precipitation_Accumulation
1.51 1.80 2.59 3.19 3.21 2.57 2.00 1.52 1.29 1.32 1.17 0.88 0.64 0.60 0.89 1.25 1.59 2.01 2.13 1.83 1.31 1.15 1.20 1.60 1.86 1.72 1.48 1.42 1.47 1.48 1.42 1.40 1.38 1.30 1.29 1.03 0.90 0.84 0.78 0.78 0.73 0.68 0.61 0.62 0.70 0.71 0.65 0.53 0.50
1.29 2.25 3.18 3.64 2.96 2.06 1.82 1.49 1.48 1.32 0.97 0.72 0.53 0.51 0.71 0.75 0.62 1.15 2.09 2.08 1.33 1.16 1.15 1.37 1.76 1.62 1.45 1.45 1.50 1.50 1.49 1.46 1.47 1.37 1.15 0.90 0.89 0.87 0.84 0.85 0.83 0.77 0.65 0.60 0.62 0.63 0.62 0.59 0.58
1.47 2.65 3.30 3.32 2.15 1.78 1.78 1.61 1.50 1.08 0.76 0.65 0.57 0.47 0.62 0.86 0.91 1.28 1.90 1.57 1.17 1.12 1.18 1.54 1.74 1.53 1.40 1.33 1.35 1.47 1.52 1.48 1.42 1.29 1.01 0.87 0.86 0.88 0.89 0.90 0.86 0.79 0.75 0.67 0.63 0.61 0.57 0.57 0.55
1.81 2.79 2.92 2.43 1.89 1.53 1.45 1.54 1.27 0.96 0.74 0.52 0.50 0.53 0.59 0.94 1.09 1.21 1.28 1.19 1.05 1.08 1.12 1.36 1.62 1.49 1.35 1.29 1.31 1.26 1.20 1.21 1.28 1.18 0.97 0.86 0.90 0.90 0.89 0.83 0.79 0.77 0.77 0.74 0.70 0.65 0.60 0.59 0.53
2.39 2.96 2.68 2.10 1.76 1.53 1.30 1.20 1.05 1.01 0.88 0.62 0.54 0.66 0.84 1.23 1.31 1.34 1.24 1.15 1.05 1.07 1.01 1.15 1.37 1.30 1.21 1.27 1.33 1.31 1.17 1.17 1.19 1.13 1.04 0.90 0.86 0.89 0.89 0.80 0.70 0.66 0.67 0.66 0.66 0.62 0.58 0.54 0.53
2.73 2.80 2.67 2.24 1.77 1.55 1.34 1.09 0.95 0.93 0.84 0.68 0.63 0.81 1.19 1.63 1.64 1.68 1.34 1.28 1.26 1.05 0.95 0.95 1.07 1.06 1.02 1.11 1.36 1.43 1.18 1.18 1.14 1.00 0.93 0.88 0.78 0.78 0.77 0.71 0.69 0.66 0.66 0.66 0.64 0.58 0.53 0.51 0.52
2.79 2.70 2.44 1.98 1.76 1.73 1.44 0.96 0.87 0.85 0.82 0.69 0.62 0.84 1.32 1.85 1.77 1.58 1.34 1.22 1.28 1.16 1.02 0.92 0.88 0.90 0.99 1.12 1.12 1.10 1.14 1.25 1.18 0.96 0.85 0.85 0.72 0.63 0.62 0.64 0.65 0.65 0.69 0.71 0.65 0.55 0.49 0.52 0.55
2.15 2.37 2.36 2.19 1.96 1.98 1.32 0.85 0.68 0.67 0.75 0.52 0.51 0.78 1.18 1.53 1.44 1.44 1.32 1.21 1.21 1.07 0.94 0.83 0.79 0.81 0.86 0.97 1.03 0.99 1.00 1.09 1.08 0.96 0.92 0.90 0.72 0.60 0.61 0.60 0.64 0.68 0.71 0.78 0.73 0.61 0.55 0.56 0.60
1.94 2.33 2.60 2.51 1.95 1.76 1.17 0.97 0.66 0.54 0.54 0.50 0.52 0.58 0.77 0.86 0.92 1.10 1.13 1.05 1.08 0.96 0.87 0.80 0.72 0.73 0.78 0.86 0.90 1.00 1.02 1.04 0.97 0.89 0.92 0.81 0.60 0.55 0.59 0.55 0.68 0.79 0.93 0.94 0.86 0.77 0.68 0.63 0.57
2.07 2.34 2.35 1.87 1.38 1.26 1.16 1.00 0.66 0.69 0.75 0.67 0.63 0.63 0.83 0.86 0.88 1.04 1.04 0.99 0.96 0.95 0.86 0.79 0.77 0.71 0.70 0.74 0.98 1.14 1.01 0.91 0.80 0.82 0.80 0.78 0.75 0.72 0.53 0.55 0.72 0.79 0.88 0.92 0.87 0.82 0.69 0.52 0.42
1.51 1.76 1.68 1.40 1.01 0.92 0.94 0.78 0.59 0.80 0.96 0.76 0.70 0.73 0.86 0.93 0.95 0.99 1.04 1.00 0.92 0.90 0.82 0.73 0.69 0.62 0.60 0.74 0.91 1.08 1.13 1.09 1.05 0.90 0.90 0.86 0.77 0.66 0.52 0.49 0.55 0.61 0.70 0.69 0.76 0.75 0.54 0.45 0.47
1.27 1.20 1.23 1.22 0.88 0.89 0.89 0.71 0.74 0.85 0.84 0.62 0.57 0.59 0.75 0.85 0.87 0.90 0.94 0.94 0.80 0.77 0.80 0.70 0.64 0.59 0.54 0.53 0.64 0.79 0.84 0.83 0.84 0.85 0.79 0.80 0.82 0.75 0.64 0.59 0.63 0.65 0.65 0.71 0.78 0.77 0.63 0.55 0.47
1.34 1.21 1.06 1.08 0.93 0.90 0.87 0.72 0.75 0.90 0.72 0.58 0.60 0.64 0.76 0.82 0.83 0.77 0.72 0.73 0.73 0.72 0.72 0.72 0.68 0.63 0.67 0.64 0.59 0.57 0.62 0.68 0.73 0.80 0.72 0.67 0.70 0.73 0.75 0.69 0.74 0.70 0.69 0.72 0.74 0.63 0.61 0.62 0.53
1.13 1.10 1.15 1.16 1.06 0.89 0.94 0.81 0.80 1.01 0.79 0.70 0.68 0.71 0.73 0.80 0.77 0.68 0.62 0.57 0.54 0.66 0.74 0.74 0.66 0.68 0.66 0.61 0.61 0.63 0.63 0.66 0.69 0.73 0.66 0.60 0.60 0.63 0.74 0.73 0.78 0.70 0.72 0.80 0.73 0.67 0.70 0.71 0.62
0.91 1.16 1.26 1.15 1.09 1.01 1.01 1.13 1.03 1.04 0.89 0.81 0.75 0.73 0.76 0.79 0.76 0.70 0.64 0.55 0.50 0.53 0.66 0.75 0.72 0.73 0.69 0.65 0.67 0.69 0.67 0.63 0.66 0.69 0.62 0.58 0.61 0.62 0.75 0.79 0.78 0.75 0.79 0.82 0.86 0.86 0.81 0.72 0.65
1.07 1.31 1.57 1.21 1.10 1.00 1.12 1.38 1.16 1.11 1.04 0.89 0.70 0.70 0.70 0.71 0.72 0.74 0.67 0.57 0.52 0.49 0.57 0.68 0.69 0.74 0.76 0.75 0.77 0.74 0.68 0.68 0.72 0.75 0.70 0.66 0.64 0.67 0.87 0.92 0.82 0.87 0.98 1.02 1.06 1.03 0.94 0.85 0.81
1.41 1.45 1.38 1.23 1.01 0.91 1.05 1.18 1.12 1.12 1.10 0.95 0.69 0.58 0.57 0.58 0.62 0.68 0.61 0.55 0.51 0.50 0.52 0.57 0.63 0.83 0.84 0.80 0.86 0.87 0.83 0.88 0.91 0.92 0.90 0.84 0.81 0.89 1.06 1.13 1.04 1.02 1.18 1.16 1.06 1.09 1.12 1.04 1.04
1.18 1.03 0.96 1.05 0.90 0.87 0.98 0.95 1.02 1.04 0.98 0.87 0.70 0.55 0.51 0.52 0.53 0.52 0.47 0.46 0.43 0.45 0.44 0.50 0.61 0.74 0.83 0.97 1.05 1.13 1.14 1.14 1.25 1.31 1.29 1.12 1.07 1.13 1.28 1.38 1.34 1.30 1.43 1.43 1.31 1.41 1.42 1.34 1.37
0.78 0.77 0.84 0.83 0.70 0.77 0.86 0.86 0.93 0.91 0.87 0.74 0.63 0.53 0.47 0.45 0.46 0.42 0.37 0.37 0.35 0.35 0.36 0.42 0.60 0.77 0.91 1.02 1.15 1.40 1.56 1.66 1.65 1.65 1.70 1.62 1.44 1.52 1.64 1.61 1.82 1.90 1.88 1.89 1.82 1.94 1.98 1.72 1.55
0.70 0.74 0.79 0.74 0.62 0.67 0.75 0.80 0.85 0.81 0.74 0.60 0.54 0.49 0.41 0.38 0.38 0.37 0.31 0.29 0.27 0.25 0.29 0.35 0.50 0.75 0.98 1.18 1.35 1.54 1.86 2.02 2.02 2.09 2.01 1.96 1.85 1.87 1.79 1.87 2.08 2.13 2.25 2.34 2.18 2.31 2.40 2.09 1.79
0.63 0.64 0.68 0.67 0.69 0.68 0.69 0.82 0.88 0.86 0.72 0.56 0.46 0.40 0.35 0.29 0.32 0.34 0.30 0.25 0.20 0.20 0.22 0.28 0.41 0.64 0.94 1.23 1.48 1.67 1.90 2.17 2.26 2.16 2.12 2.14 2.22 2.26 2.15 2.11 2.23 2.25 2.33 2.53 2.57 2.52 2.63 2.56 2.22
0.71 0.47 0.45 0.50 0.62 0.79 0.68 0.95 0.88 0.83 0.75 0.60 0.51 0.44 0.37 0.32 0.31 0.31 0.28 0.29 0.23 0.22 0.23 0.27 0.41 0.57 0.77 1.02 1.35 1.60 1.85 2.16 2.23 2.22 2.20 2.24 2.34 2.42 2.38 2.33 2.39 2.40 2.35 2.48 2.57 2.55 2.77 2.96 2.70
0.56 0.37 0.39 0.49 0.51 0.58 0.54 0.76 0.82 0.69 0.74 0.67 0.59 0.51 0.42 0.35 0.33 0.30 0.28 0.28 0.30 0.29 0.29 0.36 0.49 0.63 0.79 1.01 1.33 1.65 1.83 1.99 2.20 2.23 2.13 2.08 2.14 2.14 2.12 2.24 2.39 2.41 2.38 2.40 2.59 2.70 2.88 2.88 2.81
0.41 0.41 0.43 0.47 0.51 0.61 0.42 0.57 0.74 0.68 0.64 0.63 0.59 0.55 0.43 0.33 0.32 0.34 0.38 0.37 0.36 0.40 0.42 0.50 0.61 0.80 0.94 1.01 1.14 1.31 1.52 1.79 1.93 2.03 2.07 2.09 2.10 1.97 1.88 1.99 2.09 2.18 2.23 2.22 2.28 2.44 2.58 2.76 2.91
0.38 0.55 0.72 0.73 0.71 0.63 0.33 0.47 0.60 0.51 0.47 0.52 0.52 0.51 0.47 0.42 0.42 0.49 0.57 0.53 0.49 0.52 0.61 0.68 0.75 0.83 0.87 0.85 0.90 1.02 1.18 1.40 1.53 1.62 1.81 1.89 1.93 1.89 1.84 1.81 1.87 1.95 2.00 2.10 2.27 2.26 2.29 2.47 2.68
0.39 0.48 0.70 0.79 0.69 0.56 0.44 0.58 0.59 0.49 0.43 0.46 0.48 0.45 0.44 0.49 0.55 0.68 0.78 0.79 0.74 0.72 0.74 0.73 0.74 0.70 0.70 0.72 0.78 0.84 0.90 1.04 1.16 1.23 1.38 1.51 1.51 1.50 1.49 1.56 1.64 1.79 1.89 1.98 2.13 2.18 2.13 2.21 2.28
0.33 0.28 0.29 0.44 0.43 0.51 0.53 0.64 0.63 0.46 0.40 0.44 0.47 0.45 0.45 0.56 0.70 0.85 0.97 1.02 0.95 0.87 0.81 0.79 0.79 0.75 0.67 0.67 0.74 0.80 0.84 0.85 0.88 0.93 0.91 1.00 1.08 1.11 1.16 1.24 1.38 1.56 1.70 1.76 1.87 2.01 2.00 2.06 2.06
0.22 0.23 0.29 0.51 0.67 0.72 0.62 0.67 0.73 0.60 0.49 0.50 0.55 0.62 0.69 0.84 0.91 1.03 1.11 1.08 1.05 1.08 1.03 0.86 0.80 0.81 0.75 0.81 0.81 0.77 0.76 0.73 0.73 0.77 0.81 0.82 0.91 1.01 1.11 1.13 1.20 1.33 1.42 1.52 1.69 1.83 1.90 1.93 1.91
0.20 0.24 0.37 0.56 0.63 0.84 0.97 1.01 0.78 0.64 0.63 0.63 0.68 0.86 0.93 1.02 1.09 1.11 1.18 1.12 0.98 0.98 0.94 0.92 0.87 0.84 0.85 0.87 0.87 0.76 0.73 0.74 0.74 0.72 0.75 0.83 0.91 1.01 1.07 1.11 1.15 1.18 1.27 1.32 1.43 1.58 1.71 1.75 1.76
0.31 0.43 0.57 0.86 0.85 0.79 1.08 1.23 0.85 0.70 0.72 0.74 0.74 0.73 0.75 0.93 1.04 1.06 1.13 1.05 0.89 0.84 0.74 0.77 0.85 0.87 0.94 0.94 0.86 0.76 0.75 0.78 0.84 0.83 0.77 0.80 0.85 0.87 0.98 1.10 1.08 1.07 1.12 1.20 1.31 1.41 1.46 1.56 1.54

GEFSSGP_prec_meanprecacc_204.txt.gz
Total_Precipitation_Accumulation
1.52 1.82 2.61 3.22 3.23 2.59 2.02 1.55 1.33 1.38 1.26 0.96 0.71 0.72 0.97 1.29 1.63 2.05 2.15 1.86 1.36 1.23 1.31 1.77 2.06 1.85 1.56 1.51 1.57 1.58 1.55 1.51 1.47 1.39 1.37 1.11 0.96 0.88 0.81 0.79 0.75 0.69 0.63 0.65 0.74 0.74 0.68 0.55 0.52
1.31 2.26 3.21 3.66 2.98 2.07 1.84 1.53 1.53 1.40 1.05 0.77 0.58 0.58 0.79 0.78 0.65 1.17 2.12 2.14 1.39 1.24 1.24 1.49 1.91 1.73 1.52 1.51 1.58 1.57 1.58 1.54 1.54 1.42 1.23 0.99 0.95 0.92 0.88 0.88 0.85 0.79 0.68 0.63 0.65 0.67 0.65 0.61 0.60
1.49 2.69 3.33 3.33 2.16 1.79 1.82 1.66 1.56 1.16 0.82 0.72 0.63 0.50 0.66 0.90 0.95 1.32 1.94 1.61 1.21 1.20 1.27 1.64 1.85 1.65 1.50 1.39 1.41 1.52 1.56 1.52 1.47 1.34 1.08 0.94 0.91 0.90 0.93 0.95 0.89 0.81 0.79 0.71 0.68 0.65 0.60 0.59 0.56
1.84 2.82 2.93 2.43 1.90 1.55 1.49 1.60 1.36 1.05 0.81 0.59 0.55 0.55 0.62 0.98 1.15 1.26 1.32 1.23 1.09 1.12 1.18 1.44 1.71 1.58 1.41 1.34 1.35 1.29 1.23 1.24 1.32 1.24 1.03 0.91 0.94 0.93 0.92 0.88 0.83 0.80 0.79 0.77 0.74 0.69 0.63 0.61 0.57
2.42 2.97 2.70 2.11 1.78 1.56 1.34 1.27 1.14 1.10 0.94 0.66 0.57 0.68 0.88 1.28 1.36 1.37 1.28 1.21 1.10 1.10 1.05 1.22 1.45 1.39 1.29 1.34 1.38 1.36 1.21 1.20 1.21 1.16 1.08 0.95 0.91 0.93 0.92 0.84 0.74 0.70 0.70 0.69 0.70 0.66 0.62 0.57 0.57
2.76 2.81 2.68 2.27 1.80 1.59 1.42 1.19 1.04 1.01 0.89 0.71 0.65 0.84 1.23 1.67 1.68 1.73 1.39 1.33 1.31 1.08 0.98 1.03 1.16 1.14 1.10 1.18 1.42 1.47 1.21 1.21 1.17 1.04 0.97 0.92 0.83 0.82 0.81 0.76 0.74 0.71 0.71 0.70 0.67 0.62 0.57 0.54 0.55
2.82 2.71 2.46 2.00 1.78 1.77 1.52 1.08 0.99 0.93 0.88 0.72 0.63 0.85 1.35 1.91 1.83 1.65 1.39 1.26 1.33 1.20 1.06 0.97 0.92 0.94 1.03 1.18 1.17 1.14 1.18 1.28 1.22 1.01 0.93 0.93 0.78 0.68 0.66 0.68 0.69 0.68 0.71 0.74 0.68 0.59 0.54 0.55 0.59
2.17 2.39 2.38 2.22 1.99 2.03 1.39 0.94 0.81 0.77 0.82 0.56 0.54 0.82 1.21 1.56 1.49 1.48 1.35 1.24 1.24 1.10 0.97 0.85 0.80 0.83 0.87 0.98 1.06 1.04 1.04 1.12 1.11 1.00 0.97 0.97 0.77 0.65 0.65 0.64 0.67 0.70 0.73 0.81 0.76 0.64 0.60 0.60 0.63
1.96 2.34 2.62 2.54 1.98 1.81 1.25 1.07 0.74 0.64 0.61 0.56 0.57 0.62 0.79 0.88 0.94 1.12 1.14 1.07 1.10 0.98 0.89 0.81 0.73 0.74 0.78 0.86 0.91 1.02 1.04 1.05 0.98 0.91 0.94 0.83 0.62 0.57 0.61 0.57 0.71 0.82 0.96 0.99 0.91 0.80 0.72 0.66 0.60
2.09 2.35 2.37 1.89 1.40 1.30 1.25 1.09 0.72 0.76 0.80 0.72 0.68 0.65 0.84 0.87 0.90 1.05 1.04 1.00 0.96 0.95 0.87 0.79 0.78 0.72 0.70 0.74 0.99 1.15 1.01 0.92 0.80 0.82 0.80 0.78 0.75 0.73 0.54 0.56 0.74 0.81 0.89 0.94 0.90 0.86 0.71 0.54 0.44
1.52 1.78 1.70 1.42 1.03 0.96 1.03 0.85 0.63 0.84 1.00 0.79 0.75 0.77 0.87 0.94 0.96 1.00 1.05 1.01 0.92 0.91 0.83 0.73 0.70 0.64 0.61 0.74 0.91 1.09 1.13 1.09 1.05 0.90 0.90 0.86 0.77 0.66 0.52 0.49 0.55 0.61 0.70 0.69 0.77 0.76 0.55 0.46 0.47
1.29 1.22 1.25 1.24 0.91 0.95 0.98 0.77 0.78 0.88 0.87 0.64 0.61 0.63 0.77 0.86 0.88 0.90 0.95 0.94 0.81 0.78 0.81 0.70 0.65 0.59 0.55 0.53 0.64 0.79 0.84 0.83 0.84 0.85 0.79 0.80 0.82 0.75 0.64 0.59 0.63 0.65 0.65 0.72 0.79 0.78 0.65 0.56 0.48
1.36 1.24 1.10 1.10 0.95 0.95 0.93 0.78 0.80 0.92 0.74 0.59 0.62 0.67 0.79 0.85 0.84 0.78 0.73 0.74 0.73 0.73 0.72 0.72 0.68 0.63 0.68 0.64 0.59 0.57 0.62 0.68 0.73 0.80 0.72 0.67 0.70 0.73 0.75 0.69 0.74 0.71 0.69 0.73 0.75 0.65 0.64 0.63 0.54
1.15 1.14 1.20 1.18 1.09 0.93 0.98 0.86 0.85 1.05 0.81 0.70 0.69 0.71 0.75 0.83 0.79 0.68 0.63 0.58 0.55 0.67 0.75 0.74 0.66 0.68 0.66 0.61 0.62 0.63 0.63 0.66 0.69 0.73 0.66 0.60 0.60 0.63 0.74 0.73 0.78 0.70 0.72 0.81 0.75 0.69 0.72 0.72 0.62
0.93 1.20 1.31 1.18 1.11 1.04 1.04 1.17 1.07 1.07 0.90 0.82 0.75 0.75 0.77 0.82 0.79 0.71 0.65 0.56 0.50 0.54 0.66 0.75 0.72 0.73 0.69 0.65 0.68 0.70 0.68 0.63 0.66 0.69 0.62 0.58 0.61 0.62 0.75 0.79 0.78 0.75 0.79 0.82 0.86 0.87 0.82 0.72 0.65
1.09 1.34 1.59 1.23 1.11 1.02 1.16 1.44 1.20 1.13 1.05 0.90 0.71 0.72 0.72 0.72 0.74 0.75 0.67 0.58 0.53 0.49 0.57 0.68 0.69 0.74 0.76 0.76 0.78 0.77 0.70 0.69 0.72 0.75 0.70 0.66 0.64 0.67 0.87 0.92 0.82 0.87 0.98 1.02 1.06 1.03 0.94 0.85 0.81
1.42 1.46 1.38 1.24 1.02 0.92 1.07 1.22 1.16 1.14 1.11 0.96 0.71 0.59 0.59 0.59 0.63 0.69 0.62 0.55 0.52 0.51 0.52 0.57 0.64 0.83 0.85 0.80 0.86 0.88 0.85 0.89 0.91 0.92 0.90 0.84 0.81 0.89 1.06 1.13 1.04 1.02 1.18 1.16 1.06 1.10 1.13 1.05 1.05
1.19 1.03 0.96 1.06 0.91 0.88 0.99 0.97 1.05 1.06 1.00 0.88 0.71 0.56 0.53 0.53 0.54 0.52 0.47 0.46 0.45 0.46 0.44 0.50 0.61 0.74 0.83 0.97 1.05 1.14 1.15 1.15 1.26 1.32 1.29 1.13 1.07 1.13 1.28 1.38 1.34 1.30 1.43 1.43 1.32 1.42 1.44 1.35 1.39
0.78 0.77 0.84 0.83 0.71 0.77 0.87 0.87 0.95 0.94 0.90 0.75 0.64 0.54 0.48 0.45 0.47 0.43 0.38 0.37 0.37 0.36 0.36 0.42 0.60 0.77 0.91 1.02 1.15 1.40 1.57 1.66 1.65 1.65 1.71 1.63 1.44 1.53 1.64 1.61 1.82 1.90 1.88 1.89 1.83 1.95 1.99 1.74 1.56
0.72 0.74 0.79 0.74 0.62 0.68 0.76 0.81 0.87 0.82 0.75 0.61 0.55 0.49 0.41 0.38 0.39 0.39 0.32 0.30 0.28 0.26 0.29 0.35 0.50 0.75 0.98 1.18 1.36 1.55 1.87 2.03 2.03 2.10 2.03 1.97 1.86 1.87 1.79 1.87 2.08 2.13 2.25 2.35 2.19 2.32 2.41 2.10 1.80
0.64 0.65 0.68 0.67 0.69 0.69 0.70 0.84 0.89 0.87 0.73 0.57 0.46 0.41 0.35 0.30 0.33 0.36 0.32 0.27 0.22 0.21 0.23 0.28 0.42 0.64 0.94 1.23 1.48 1.69 1.92 2.18 2.27 2.18 2.14 2.16 2.23 2.26 2.15 2.11 2.23 2.25 2.33 2.53 2.57 2.53 2.64 2.57 2.23
0.72 0.47 0.45 0.50 0.62 0.79 0.68 0.97 0.89 0.84 0.75 0.61 0.51 0.44 0.38 0.33 0.32 0.32 0.31 0.30 0.24 0.23 0.24 0.27 0.42 0.57 0.77 1.02 1.35 1.61 1.86 2.17 2.25 2.23 2.21 2.26 2.35 2.43 2.38 2.33 2.39 2.40 2.35 2.48 2.58 2.56 2.78 2.97 2.70
0.56 0.37 0.40 0.50 0.52 0.58 0.54 0.77 0.82 0.69 0.74 0.67 0.60 0.52 0.42 0.36 0.34 0.31 0.31 0.31 0.31 0.30 0.30 0.37 0.49 0.63 0.80 1.01 1.33 1.66 1.84 2.00 2.21 2.23 2.14 2.09 2.16 2.16 2.13 2.24 2.39 2.41 2.38 2.40 2.59 2.70 2.89 2.89 2.81
0.41 0.42 0.44 0.47 0.51 0.61 0.43 0.58 0.75 0.68 0.64 0.63 0.59 0.55 0.44 0.33 0.33 0.35 0.41 0.41 0.39 0.41 0.44 0.52 0.63 0.81 0.94 1.01 1.14 1.31 1.52 1.79 1.93 2.04 2.07 2.09 2.10 1.99 1.90 2.00 2.10 2.18 2.23 2.22 2.28 2.44 2.59 2.77 2.91
0.38 0.55 0.73 0.74 0.72 0.64 0.33 0.47 0.60 0.51 0.47 0.52 0.52 0.52 0.48 0.44 0.43 0.51 0.61 0.57 0.53 0.54 0.63 0.70 0.77 0.84 0.88 0.85 0.90 1.02 1.18 1.40 1.53 1.62 1.82 1.90 1.94 1.90 1.85 1.82 1.89 1.96 2.00 2.10 2.27 2.26 2.29 2.47 2.68
0.39 0.48 0.71 0.79 0.70 0.56 0.45 0.58 0.59 0.49 0.43 0.46 0.48 0.46 0.45 0.51 0.57 0.69 0.81 0.83 0.77 0.75 0.75 0.74 0.76 0.72 0.71 0.73 0.78 0.84 0.90 1.04 1.16 1.23 1.38 1.51 1.51 1.50 1.50 1.57 1.66 1.80 1.89 1.99 2.13 2.18 2.13 2.21 2.28
0.34 0.30 0.31 0.45 0.44 0.51 0.54 0.64 0.63 0.46 0.40 0.44 0.47 0.46 0.47 0.58 0.71 0.87 1.00 1.06 0.99 0.90 0.82 0.80 0.81 0.76 0.68 0.68 0.75 0.80 0.84 0.85 0.88 0.93 0.91 1.00 1.08 1.11 1.17 1.25 1.39 1.58 1.71 1.77 1.87 2.01 2.00 2.06 2.06
0.23 0.25 0.31 0.52 0.68 0.72 0.62 0.67 0.73 0.61 0.49 0.50 0.55 0.63 0.71 0.86 0.93 1.05 1.13 1.12 1.09 1.12 1.05 0.88 0.82 0.82 0.75 0.83 0.83 0.78 0.76 0.74 0.73 0.77 0.81 0.82 0.91 1.01 1.11 1.14 1.21 1.34 1.44 1.53 1.70 1.84 1.91 1.94 1.91
0.20 0.25 0.38 0.57 0.63 0.85 0.97 1.01 0.78 0.64 0.63 0.64 0.68 0.87 0.94 1.04 1.12 1.14 1.20 1.15 1.02 1.03 0.98 0.95 0.90 0.86 0.87 0.89 0.89 0.78 0.74 0.74 0.74 0.72 0.75 0.83 0.91 1.01 1.07 1.12 1.16 1.19 1.28 1.33 1.44 1.59 1.73 1.76 1.77
0.31 0.43 0.57 0.87 0.87 0.81 1.09 1.23 0.85 0.70 0.72 0.75 0.75 0.74 0.75 0.95 1.07 1.10 1.17 1.09 0.94 0.89 0.78 0.80 0.88 0.89 0.96 0.96 0.88 0.78 0.76 0.79 0.84 0.83 0.77 0.80 0.86 0.87 0.98 1.11 1.09 1.08 1.13 1.21 1.33 1.42 1.47 1.57 1.54

GEFSSGP_prec_meanprecacc_210.txt.gz
Total_Precipitation_Accumulation
1.55 1.84 2.65 3.26 3.24 2.61 2.04 1.57 1.34 1.40 1.29 0.99 0.74 0.76 1.03 1.35 1.67 2.08 2.18 1.89 1.40 1.30 1.42 1.89 2.21 2.02 1.67 1.60 1.68 1.69 1.68 1.64 1.60 1.51 1.51 1.24 1.08 0.99 0.90 0.88 0.82 0.76 0.70 0.70 0.79 0.77 0.70 0.57 0.54
1.32 2.27 3.24 3.69 3.00 2.10 1.86 1.54 1.55 1.42 1.07 0.79 0.61 0.62 0.84 0.83 0.67 1.20 2.16 2.19 1.45 1.30 1.32 1.58 2.05 1.89 1.67 1.62 1.72 1.72 1.70 1.63 1.62 1.51 1.31 1.07 1.04 1.00 0.96 0.95 0.92 0.85 0.74 0.68 0.70 0.70 0.67 0.63 0.62
1.50 2.69 3.34 3.35 2.19 1.82 1.84 1.68 1.58 1.19 0.84 0.74 0.66 0.54 0.71 0.96 0.99 1.36 1.98 1.65 1.27 1.25 1.33 1.74 1.98 1.83 1.69 1.54 1.56 1.64 1.64 1.58 1.53 1.40 1.13 0.99 0.96 0.96 1.00 1.01 0.95 0.87 0.85 0.76 0.72 0.68 0.63 0.62 0.59
1.84 2.83 2.94 2.45 1.91 1.56 1.51 1.62 1.39 1.09 0.85 0.61 0.58 0.58 0.65 1.05 1.22 1.30 1.34 1.26 1.13 1.16 1.24 1.51 1.82 1.79 1.63 1.47 1.47 1.37 1.29 1.30 1.39 1.30 1.08 0.96 0.98 0.97 0.97 0.94 0.89 0.87 0.86 0.83 0.78 0.72 0.67 0.65 0.61
2.43 2.98 2.71 2.13 1.78 1.57 1.38 1.31 1.17 1.15 1.01 0.72 0.60 0.71 0.92 1.35 1.44 1.41 1.29 1.23 1.12 1.12 1.08 1.26 1.54 1.55 1.49 1.47 1.47 1.42 1.26 1.25 1.26 1.21 1.13 0.99 0.96 0.98 0.97 0.88 0.79 0.75 0.77 0.77 0.75 0.70 0.66 0.60 0.60
2.78 2.82 2.70 2.28 1.81 1.60 1.44 1.23 1.08 1.06 0.94 0.78 0.69 0.86 1.29 1.74 1.76 1.78 1.42 1.35 1.34 1.10 1.01 1.07 1.25 1.27 1.22 1.26 1.50 1.52 1.25 1.25 1.21 1.07 1.01 0.96 0.88 0.88 0.87 0.80 0.79 0.77 0.79 0.80 0.73 0.66 0.60 0.57 0.58
2.85 2.74 2.48 2.01 1.80 1.79 1.55 1.12 1.03 0.97 0.91 0.75 0.68 0.89 1.39 1.96 1.87 1.68 1.42 1.29 1.36 1.23 1.08 1.00 0.97 1.00 1.10 1.26 1.24 1.19 1.21 1.31 1.26 1.05 0.98 1.01 0.85 0.77 0.75 0.75 0.78 0.77 0.81 0.83 0.75 0.64 0.57 0.58 0.62
2.19 2.41 2.41 2.24 2.01 2.06 1.43 0.99 0.85 0.82 0.86 0.58 0.58 0.86 1.26 1.60 1.51 1.50 1.37 1.26 1.26 1.13 0.99 0.86 0.81 0.84 0.91 1.03 1.10 1.08 1.08 1.15 1.15 1.06 1.04 1.05 0.84 0.73 0.72 0.69 0.74 0.78 0.81 0.87 0.81 0.68 0.63 0.62 0.66
1.97 2.35 2.65 2.57 2.01 1.84 1.29 1.12 0.79 0.70 0.66 0.59 0.59 0.65 0.84 0.91 0.96 1.14 1.16 1.09 1.12 1.00 0.90 0.82 0.74 0.75 0.81 0.88 0.91 1.03 1.05 1.07 0.99 0.92 0.95 0.85 0.65 0.63 0.66 0.62 0.77 0.87 1.01 1.02 0.95 0.85 0.75 0.68 0.63
2.10 2.38 2.39 1.91 1.42 1.32 1.30 1.14 0.76 0.80 0.85 0.76 0.70 0.68 0.88 0.93 0.92 1.07 1.06 1.01 0.98 0.98 0.88 0.80 0.79 0.74 0.72 0.75 0.99 1.15 1.02 0.92 0.80 0.82 0.80 0.78 0.77 0.75 0.57 0.59 0.78 0.84 0.93 0.97 0.94 0.90 0.74 0.55 0.45
1.54 1.80 1.72 1.43 1.04 0.98 1.07 0.90 0.66 0.87 1.04 0.82 0.79 0.80 0.91 1.00 0.99 1.01 1.06 1.02 0.93 0.93 0.85 0.74 0.73 0.66 0.62 0.74 0.91 1.09 1.13 1.09 1.05 0.91 0.90 0.86 0.78 0.68 0.54 0.51 0.56 0.62 0.71 0.71 0.78 0.78 0.56 0.47 0.49
1.30 1.23 1.26 1.25 0.92 0.96 1.00 0.80 0.81 0.91 0.90 0.66 0.64 0.68 0.82 0.92 0.91 0.91 0.95 0.95 0.81 0.79 0.82 0.71 0.65 0.60 0.55 0.53 0.64 0.79 0.84 0.84 0.85 0.86 0.79 0.80 0.82 0.75 0.65 0.60 0.63 0.66 0.66 0.73 0.80 0.79 0.66 0.58 0.50
1.37 1.25 1.11 1.11 0.96 0.96 0.95 0.82 0.83 0.95 0.76 0.63 0.67 0.72 0.86 0.90 0.87 0.79 0.73 0.74 0.74 0.73 0.73 0.72 0.68 0.63 0.68 0.64 0.60 0.57 0.62 0.68 0.73 0.80 0.72 0.67 0.70 0.73 0.75 0.69 0.75 0.71 0.71 0.74 0.76 0.66 0.65 0.64 0.54
1.15 1.16 1.22 1.20 1.10 0.95 1.00 0.88 0.87 1.06 0.84 0.74 0.74 0.76 0.82 0.88 0.81 0.69 0.63 0.58 0.55 0.67 0.76 0.75 0.66 0.68 0.66 0.62 0.63 0.64 0.63 0.66 0.69 0.73 0.66 0.60 0.60 0.63 0.74 0.73 0.79 0.71 0.74 0.82 0.76 0.71 0.72 0.72 0.63
0.94 1.22 1.34 1.20 1.12 1.06 1.07 1.20 1.09 1.08 0.92 0.84 0.78 0.78 0.82 0.87 0.83 0.73 0.65 0.56 0.51 0.55 0.67 0.76 0.72 0.73 0.69 0.65 0.69 0.71 0.69 0.64 0.66 0.69 0.62 0.58 0.61 0.62 0.75 0.79 0.78 0.76 0.80 0.84 0.87 0.88 0.82 0.73 0.66
1.11 1.38 1.62 1.25 1.13 1.04 1.19 1.47 1.22 1.15 1.07 0.93 0.73 0.74 0.75 0.77 0.78 0.78 0.69 0.58 0.53 0.50 0.58 0.69 0.70 0.74 0.76 0.76 0.78 0.77 0.72 0.71 0.73 0.75 0.70 0.66 0.64 0.67 0.87 0.92 0.82 0.87 0.98 1.02 1.07 1.04 0.94 0.86 0.82
1.44 1.49 1.41 1.26 1.05 0.95 1.10 1.24 1.19 1.16 1.13 0.98 0.72 0.60 0.62 0.63 0.66 0.71 0.63 0.57 0.53 0.51 0.52 0.57 0.64 0.83 0.85 0.80 0.86 0.89 0.87 0.92 0.93 0.94 0.90 0.84 0.81 0.89 1.06 1.13 1.04 1.02 1.18 1.17 1.06 1.11 1.13 1.06 1.07
1.21 1.04 0.97 1.07 0.93 0.90 1.01 0.99 1.07 1.07 1.02 0.89 0.72 0.57 0.54 0.55 0.56 0.54 0.48 0.47 0.45 0.46 0.44 0.50 0.61 0.74 0.84 0.97 1.05 1.14 1.15 1.16 1.28 1.34 1.30 1.13 1.08 1.13 1.28 1.38 1.34 1.31 1.43 1.44 1.33 1.43 1.45 1.36 1.41
0.80 0.78 0.85 0.84 0.72 0.79 0.89 0.89 0.97 0.95 0.91 0.76 0.64 0.55 0.49 0.47 0.49 0.44 0.39 0.38 0.38 0.36 0.36 0.42 0.60 0.77 0.92 1.02 1.16 1.41 1.57 1.67 1.66 1.67 1.72 1.63 1.44 1.53 1.64 1.61 1.83 1.90 1.89 1.90 1.84 1.96 2.00 1.75 1.59
0.72 0.75 0.80 0.75 0.62 0.68 0.77 0.83 0.88 0.83 0.77 0.62 0.55 0.49 0.42 0.40 0.41 0.40 0.33 0.31 0.29 0.26 0.29 0.36 0.51 0.75 0.98 1.19 1.36 1.55 1.87 2.04 2.04 2.11 2.03 1.97 1.86 1.88 1.80 1.87 2.09 2.15 2.26 2.35 2.20 2.33 2.42 2.12 1.83
0.65 0.65 0.68 0.67 0.69 0.69 0.72 0.86 0.91 0.88 0.74 0.57 0.47 0.41 0.36 0.31 0.34 0.36 0.32 0.27 0.22 0.21 0.23 0.29 0.42 0.65 0.94 1.24 1.49 1.69 1.93 2.19 2.28 2.18 2.14 2.16 2.23 2.27 2.15 2.11 2.23 2.25 2.34 2.54 2.59 2.54 2.66 2.59 2.25
0.74 0.47 0.46 0.51 0.63 0.80 0.69 0.99 0.90 0.85 0.76 0.61 0.52 0.44 0.38 0.33 0.32 0.32 0.31 0.31 0.24 0.24 0.25 0.28 0.42 0.58 0.78 1.03 1.36 1.61 1.87 2.18 2.26 2.24 2.22 2.27 2.36 2.43 2.38 2.33 2.39 2.40 2.36 2.49 2.58 2.56 2.79 2.99 2.73
0.57 0.37 0.40 0.50 0.53 0.59 0.55 0.77 0.83 0.69 0.75 0.67 0.60 0.52 0.43 0.37 0.34 0.32 0.31 0.31 0.32 0.30 0.31 0.38 0.50 0.63 0.80 1.02 1.34 1.66 1.84 2.01 2.21 2.24 2.15 2.10 2.17 2.17 2.13 2.25 2.40 2.42 2.39 2.40 2.59 2.71 2.90 2.91 2.83
0.41 0.42 0.44 0.47 0.52 0.62 0.43 0.58 0.75 0.68 0.64 0.63 0.59 0.56 0.45 0.34 0.33 0.36 0.41 0.42 0.40 0.42 0.45 0.53 0.64 0.82 0.95 1.02 1.15 1.32 1.52 1.80 1.93 2.04 2.08 2.11 2.12 1.99 1.91 2.00 2.10 2.19 2.24 2.22 2.29 2.44 2.60 2.78 2.93
0.38 0.56 0.74 0.75 0.73 0.64 0.33 0.47 0.60 0.51 0.47 0.52 0.52 0.52 0.49 0.45 0.44 0.51 0.61 0.57 0.54 0.56 0.65 0.71 0.79 0.85 0.88 0.86 0.91 1.02 1.19 1.40 1.54 1.62 1.82 1.90 1.95 1.91 1.86 1.83 1.89 1.96 2.00 2.10 2.27 2.27 2.31 2.49 2.69
0.40 0.49 0.72 0.80 0.70 0.57 0.45 0.58 0.59 0.49 0.43 0.46 0.48 0.46 0.46 0.52 0.57 0.69 0.81 0.83 0.78 0.78 0.78 0.76 0.78 0.74 0.72 0.73 0.79 0.84 0.90 1.04 1.16 1.23 1.38 1.52 1.52 1.50 1.50 1.57 1.66 1.80 1.89 1.99 2.13 2.18 2.14 2.23 2.29
0.35 0.31 0.31 0.45 0.44 0.52 0.54 0.64 0.63 0.46 0.40 0.44 0.47 0.47 0.47 0.58 0.72 0.87 1.01 1.07 0.99 0.92 0.86 0.83 0.83 0.78 0.69 0.69 0.76 0.81 0.85 0.85 0.88 0.93 0.92 1.00 1.08 1.12 1.17 1.25 1.39 1.58 1.71 1.77 1.87 2.01 2.01 2.06 2.06
0.23 0.26 0.32 0.53 0.69 0.73 0.62 0.67 0.74 0.61 0.49 0.51 0.56 0.63 0.72 0.86 0.93 1.05 1.13 1.12 1.10 1.13 1.09 0.91 0.84 0.84 0.77 0.84 0.84 0.79 0.77 0.74 0.73 0.77 0.81 0.83 0.92 1.01 1.11 1.14 1.21 1.34 1.44 1.53 1.70 1.84 1.91 1.94 1.92
0.21 0.26 0.39 0.58 0.64 0.85 0.98 1.02 0.78 0.64 0.63 0.64 0.69 0.88 0.95 1.05 1.13 1.14 1.21 1.16 1.03 1.04 1.02 0.99 0.93 0.87 0.88 0.90 0.90 0.79 0.76 0.77 0.76 0.72 0.75 0.83 0.92 1.01 1.07 1.12 1.16 1.19 1.28 1.33 1.44 1.59 1.73 1.76 1.78
0.31 0.44 0.59 0.89 0.88 0.81 1.10 1.23 0.85 0.70 0.72 0.75 0.75 0.74 0.75 0.95 1.08 1.11 1.18 1.11 0.96 0.92 0.81 0.84 0.92 0.92 0.98 0.98 0.89 0.80 0.78 0.81 0.86 0.84 0.78 0.81 0.86 0.87 0.98 1.11 1.10 1.09 1.14 1.22 1.33 1.43 1.48 1.58 1.56

GEFSSGP_prec_meanprecacc_216.txt.gz
Total_Precipitation_Accumulation
1.57 1.85 2.69 3.35 3.38 2.77 2.21 1.69 1.41 1.46 1.34 1.00 0.75 0.77 1.11 1.45 1.77 2.18 2.29 2.00 1.48 1.36 1.51 1.97 2.28 2.09 1.75 1.65 1.74 1.77 1.76 1.74 1.70 1.61 1.62 1.34 1.19 1.13 1.03 0.95 0.88 0.81 0.75 0.75 0.85 0.84 0.75 0.60 0.57
1.34 2.28 3.28 3.78 3.15 2.26 2.00 1.64 1.60 1.46 1.10 0.80 0.61 0.63 0.88 0.87 0.71 1.27 2.26 2.29 1.52 1.36 1.40 1.63 2.09 1.94 1.74 1.70 1.81 1.84 1.81 1.75 1.74 1.63 1.43 1.17 1.13 1.11 1.10 1.07 1.01 0.90 0.79 0.75 0.78 0.79 0.74 0.67 0.65
1.53 2.73 3.40 3.44 2.31 1.95 1.97 1.75 1.62 1.20 0.85 0.74 0.67 0.57 0.76 1.02 1.04 1.43 2.07 1.72 1.32 1.31 1.39 1.77 2.01 1.87 1.76 1.61 1.65 1.76 1.74 1.68 1.65 1.54 1.27 1.10 1.04 1.02 1.05 1.07 1.03 0.96 0.92 0.82 0.79 0.76 0.71 0.69 0.64
1.88 2.87 3.00 2.53 2.00 1.64 1.59 1.67 1.42 1.11 0.86 0.62 0.61 0.62 0.67 1.11 1.29 1.35 1.40 1.31 1.16 1.21 1.28 1.54 1.84 1.84 1.72 1.56 1.56 1.47 1.37 1.36 1.45 1.37 1.16 1.02 1.03 1.00 1.01 0.99 0.95 0.93 0.92 0.89 0.84 0.77 0.73 0.70 0.65
2.47 3.03 2.79 2.22 1.84 1.61 1.41 1.33 1.20 1.19 1.06 0.75 0.64 0.76 0.96 1.42 1.50 1.44 1.32 1.27 1.15 1.15 1.11 1.28 1.55 1.60 1.60 1.58 1.54 1.49 1.32 1.31 1.31 1.26 1.18 1.04 1.00 1.01 1.00 0.91 0.83 0.82 0.84 0.83 0.80 0.75 0.71 0.64 0.63
2.82 2.87 2.78 2.38 1.87 1.63 1.47 1.25 1.12 1.12 1.01 0.82 0.74 0.90 1.34 1.84 1.84 1.83 1.45 1.38 1.36 1.13 1.03 1.09 1.28 1.32 1.28 1.31 1.54 1.57 1.29 1.30 1.25 1.12 1.06 1.02 0.93 0.93 0.91 0.82 0.81 0.82 0.89 0.87 0.79 0.71 0.66 0.61 0.60
2.90 2.80 2.57 2.10 1.86 1.83 1.58 1.15 1.06 1.05 0.98 0.79 0.73 0.94 1.44 2.05 1.94 1.72 1.44 1.30 1.39 1.25 1.10 1.01 0.99 1.02 1.13 1.29 1.27 1.22 1.23 1.34 1.29 1.09 1.02 1.04 0.89 0.81 0.78 0.79 0.82 0.82 0.91 0.91 0.81 0.70 0.62 0.61 0.64
2.21 2.46 2.49 2.32 2.08 2.11 1.45 1.02 0.89 0.87 0.90 0.59 0.61 0.92 1.30 1.66 1.56 1.54 1.39 1.28 1.29 1.15 1.01 0.89 0.83 0.87 0.94 1.07 1.14 1.11 1.09 1.17 1.17 1.08 1.06 1.06 0.87 0.75 0.75 0.76 0.85 0.91 0.93 0.96 0.87 0.71 0.65 0.65 0.69
1.98 2.42 2.75 2.65 2.07 1.89 1.32 1.15 0.82 0.73 0.68 0.60 0.60 0.68 0.88 0.94 1.01 1.19 1.19 1.11 1.13 1.01 0.91 0.84 0.76 0.78 0.85 0.91 0.93 1.04 1.05 1.07 0.99 0.93 0.96 0.87 0.67 0.66 0.70 0.68 0.88 1.01 1.12 1.10 0.99 0.88 0.78 0.72 0.67
2.13 2.46 2.48 1.96 1.46 1.37 1.33 1.18 0.79 0.84 0.89 0.79 0.72 0.70 0.90 0.97 0.99 1.11 1.08 1.04 1.00 1.00 0.90 0.82 0.81 0.77 0.75 0.76 1.01 1.16 1.02 0.92 0.81 0.83 0.82 0.80 0.78 0.77 0.61 0.65 0.87 0.91 0.99 1.02 0.98 0.93 0.79 0.61 0.51
1.57 1.86 1.77 1.45 1.07 1.01 1.09 0.94 0.69 0.91 1.10 0.86 0.81 0.82 0.94 1.03 1.04 1.05 1.08 1.03 0.95 0.95 0.87 0.76 0.77 0.69 0.64 0.75 0.93 1.10 1.14 1.10 1.06 0.91 0.91 0.86 0.78 0.68 0.56 0.58 0.65 0.71 0.78 0.75 0.81 0.81 0.61 0.52 0.54
1.32 1.26 1.28 1.26 0.93 0.97 1.02 0.83 0.85 0.95 0.95 0.69 0.66 0.70 0.85 0.94 0.95 0.96 0.98 0.96 0.82 0.80 0.84 0.73 0.70 0.61 0.55 0.53 0.64 0.80 0.84 0.84 0.85 0.86 0.79 0.80 0.82 0.75 0.66 0.64 0.69 0.73 0.72 0.77 0.83 0.82 0.69 0.60 0.52
1.38 1.27 1.12 1.11 0.97 0.98 0.98 0.86 0.86 0.98 0.78 0.64 0.68 0.74 0.89 0.94 0.89 0.81 0.76 0.76 0.74 0.74 0.74 0.73 0.69 0.64 0.68 0.65 0.60 0.58 0.63 0.68 0.73 0.80 0.72 0.67 0.70 0.73 0.75 0.71 0.78 0.76 0.75 0.78 0.79 0.67 0.66 0.65 0.56
1.17 1.17 1.23 1.21 1.11 0.96 1.02 0.91 0.89 1.09 0.85 0.75 0.75 0.78 0.85 0.92 0.85 0.71 0.65 0.60 0.56 0.68 0.77 0.76 0.66 0.68 0.66 0.62 0.63 0.65 0.64 0.67 0.69 0.74 0.66 0.60 0.61 0.63 0.74 0.74 0.80 0.73 0.77 0.85 0.79 0.71 0.73 0.73 0.64
0.95 1.23 1.36 1.22 1.13 1.07 1.08 1.22 1.12 1.10 0.93 0.85 0.79 0.79 0.84 0.90 0.88 0.78 0.68 0.59 0.52 0.55 0.67 0.76 0.72 0.73 0.69 0.66 0.69 0.71 0.70 0.65 0.67 0.70 0.63 0.58 0.62 0.63 0.75 0.79 0.78 0.76 0.81 0.85 0.89 0.88 0.82 0.74 0.67
1.12 1.40 1.66 1.27 1.14 1.05 1.21 1.51 1.26 1.17 1.08 0.94 0.74 0.75 0.78 0.80 0.84 0.86 0.75 0.62 0.54 0.50 0.58 0.69 0.70 0.74 0.76 0.76 0.78 0.78 0.73 0.72 0.74 0.76 0.71 0.66 0.65 0.68 0.87 0.92 0.82 0.87 0.98 1.04 1.09 1.05 0.96 0.87 0.83
1.48 1.53 1.45 1.28 1.06 0.96 1.12 1.27 1.21 1.18 1.14 1.00 0.73 0.62 0.65 0.66 0.70 0.76 0.69 0.61 0.54 0.52 0.53 0.57 0.64 0.83 0.85 0.80 0.86 0.89 0.87 0.93 0.94 0.94 0.90 0.84 0.81 0.89 1.06 1.13 1.04 1.03 1.18 1.17 1.07 1.12 1.15 1.07 1.09
1.25 1.08 1.01 1.09 0.94 0.91 1.03 1.01 1.09 1.09 1.03 0.91 0.74 0.60 0.58 0.59 0.58 0.56 0.52 0.50 0.47 0.47 0.45 0.50 0.61 0.74 0.84 0.97 1.05 1.14 1.15 1.16 1.28 1.34 1.31 1.13 1.08 1.13 1.29 1.38 1.35 1.31 1.44 1.45 1.34 1.45 1.47 1.38 1.43
0.81 0.81 0.87 0.86 0.72 0.80 0.90 0.91 0.98 0.96 0.92 0.77 0.66 0.57 0.52 0.51 0.52 0.46 0.40 0.39 0.39 0.37 0.37 0.42 0.60 0.77 0.92 1.02 1.16 1.41 1.57 1.67 1.67 1.68 1.73 1.64 1.44 1.53 1.64 1.61 1.84 1.92 1.90 1.91 1.86 1.98 2.02 1.77 1.61
0.74 0.77 0.82 0.76 0.63 0.70 0.79 0.85 0.89 0.85 0.78 0.63 0.57 0.51 0.44 0.42 0.44 0.42 0.34 0.32 0.30 0.27 0.30 0.36 0.51 0.75 0.98 1.19 1.36 1.55 1.87 2.04 2.04 2.11 2.04 1.98 1.86 1.88 1.80 1.88 2.10 2.16 2.28 2.37 2.22 2.36 2.45 2.13 1.84
0.67 0.67 0.70 0.69 0.71 0.71 0.73 0.89 0.93 0.89 0.75 0.58 0.48 0.43 0.39 0.32 0.35 0.37 0.33 0.28 0.23 0.22 0.24 0.29 0.42 0.65 0.95 1.24 1.49 1.69 1.93 2.19 2.28 2.19 2.15 2.18 2.24 2.27 2.15 2.11 2.24 2.26 2.35 2.55 2.60 2.56 2.68 2.61 2.26
0.75 0.49 0.46 0.51 0.65 0.83 0.71 1.02 0.93 0.85 0.76 0.62 0.53 0.46 0.41 0.34 0.33 0.33 0.31 0.31 0.25 0.24 0.25 0.29 0.43 0.58 0.78 1.04 1.36 1.62 1.87 2.19 2.27 2.25 2.24 2.28 2.37 2.44 2.38 2.33 2.39 2.41 2.38 2.50 2.59 2.57 2.80 3.00 2.74
0.59 0.38 0.40 0.51 0.54 0.61 0.56 0.80 0.85 0.70 0.75 0.67 0.61 0.53 0.45 0.39 0.35 0.32 0.31 0.31 0.32 0.31 0.31 0.39 0.51 0.64 0.81 1.02 1.34 1.66 1.85 2.01 2.22 2.24 2.16 2.10 2.18 2.18 2.14 2.25 2.40 2.42 2.40 2.41 2.60 2.71 2.90 2.93 2.85
0.42 0.42 0.45 0.48 0.54 0.66 0.44 0.59 0.76 0.69 0.64 0.63 0.59 0.57 0.47 0.37 0.35 0.37 0.42 0.42 0.40 0.43 0.46 0.54 0.64 0.82 0.95 1.03 1.15 1.32 1.53 1.81 1.94 2.05 2.09 2.11 2.12 2.00 1.91 2.01 2.11 2.19 2.25 2.24 2.29 2.45 2.61 2.80 2.94
0.39 0.58 0.77 0.78 0.77 0.67 0.33 0.47 0.61 0.52 0.47 0.53 0.53 0.53 0.50 0.46 0.45 0.52 0.62 0.58 0.54 0.56 0.66 0.73 0.80 0.87 0.90 0.87 0.91 1.03 1.19 1.42 1.55 1.63 1.83 1.91 1.96 1.92 1.86 1.84 1.90 1.97 2.01 2.11 2.28 2.28 2.32 2.50 2.70
0.40 0.50 0.76 0.85 0.73 0.58 0.45 0.59 0.60 0.49 0.43 0.46 0.48 0.47 0.46 0.52 0.58 0.71 0.83 0.84 0.78 0.78 0.80 0.78 0.80 0.76 0.73 0.74 0.79 0.84 0.90 1.06 1.17 1.24 1.39 1.52 1.53 1.51 1.50 1.57 1.66 1.80 1.90 1.99 2.13 2.19 2.15 2.23 2.29
0.36 0.32 0.32 0.48 0.46 0.54 0.55 0.65 0.64 0.46 0.41 0.44 0.47 0.47 0.48 0.59 0.72 0.88 1.02 1.08 1.00 0.93 0.88 0.85 0.87 0.81 0.71 0.70 0.76 0.82 0.87 0.88 0.89 0.94 0.92 1.01 1.09 1.13 1.18 1.25 1.39 1.59 1.71 1.77 1.87 2.01 2.01 2.07 2.07
0.24 0.26 0.33 0.56 0.73 0.77 0.64 0.69 0.76 0.61 0.49 0.51 0.57 0.65 0.73 0.87 0.93 1.05 1.14 1.13 1.10 1.14 1.10 0.94 0.87 0.87 0.79 0.85 0.85 0.80 0.79 0.75 0.74 0.78 0.82 0.84 0.93 1.03 1.12 1.15 1.22 1.34 1.44 1.53 1.70 1.84 1.92 1.95 1.93
0.21 0.27 0.41 0.60 0.67 0.91 1.02 1.04 0.79 0.64 0.63 0.64 0.70 0.90 0.96 1.05 1.13 1.14 1.22 1.17 1.04 1.05 1.03 1.01 0.95 0.90 0.90 0.91 0.91 0.80 0.78 0.78 0.76 0.73 0.76 0.85 0.93 1.04 1.09 1.13 1.17 1.20 1.29 1.34 1.45 1.60 1.74 1.77 1.78
0.32 0.44 0.60 0.92 0.91 0.84 1.14 1.26 0.85 0.71 0.72 0.75 0.76 0.76 0.76 0.95 1.08 1.11 1.19 1.12 0.96 0.93 0.83 0.86 0.94 0.95 1.00 0.99 0.90 0.81 0.82 0.83 0.87 0.85 0.79 0.83 0.88 0.90 0.99 1.12 1.10 1.09 1.14 1.23 1.34 1.43 1.48 1.59 1.56

GEFSSGP_prec_meanprecacc_222.txt.gz
Total_Precipitation_Accumulation
1.58 1.87 2.72 3.43 3.49 2.85 2.31 1.83 1.54 1.54 1.40 1.04 0.76 0.78 1.14 1.50 1.83 2.29 2.43 2.10 1.53 1.40 1.55 2.02 2.33 2.14 1.78 1.69 1.77 1.79 1.78 1.77 1.75 1.67 1.68 1.40 1.25 1.18 1.07 0.99 0.91 0.84 0.77 0.78 0.88 0.87 0.78 0.62 0.60
1.36 2.31 3.32 3.86 3.23 2.34 2.10 1.77 1.70 1.52 1.13 0.83 0.62 0.64 0.90 0.89 0.75 1.37 2.38 2.37 1.59 1.40 1.43 1.66 2.14 1.99 1.78 1.73 1.84 1.88 1.85 1.80 1.81 1.72 1.50 1.23 1.19 1.16 1.14 1.13 1.06 0.94 0.82 0.77 0.80 0.82 0.77 0.71 0.68
1.54 2.77 3.47 3.52 2.37 2.01 2.07 1.90 1.74 1.27 0.87 0.75 0.68 0.58 0.78 1.06 1.08 1.49 2.16 1.79 1.37 1.34 1.42 1.79 2.04 1.90 1.77 1.62 1.68 1.81 1.77 1.74 1.75 1.65 1.36 1.15 1.08 1.08 1.11 1.13 1.08 1.00 0.96 0.85 0.81 0.79 0.74 0.73 0.66
1.90 2.93 3.07 2.59 2.05 1.71 1.68 1.79 1.51 1.19 0.92 0.63 0.62 0.65 0.69 1.16 1.36 1.39 1.45 1.35 1.20 1.23 1.30 1.55 1.86 1.87 1.75 1.59 1.60 1.50 1.40 1.39 1.49 1.44 1.24 1.11 1.12 1.06 1.06 1.03 0.99 0.97 0.97 0.93 0.87 0.81 0.76 0.73 0.67
2.50 3.09 2.85 2.27 1.89 1.70 1.52 1.43 1.28 1.26 1.14 0.79 0.66 0.78 0.98 1.45 1.55 1.48 1.34 1.28 1.17 1.16 1.12 1.30 1.57 1.62 1.63 1.61 1.56 1.49 1.33 1.33 1.33 1.29 1.21 1.08 1.04 1.04 1.03 0.94 0.86 0.85 0.88 0.88 0.84 0.78 0.73 0.65 0.65
2.86 2.93 2.84 2.42 1.93 1.73 1.59 1.35 1.17 1.17 1.09 0.87 0.77 0.94 1.38 1.89 1.89 1.86 1.46 1.39 1.37 1.14 1.04 1.10 1.29 1.32 1.28 1.32 1.54 1.57 1.30 1.31 1.26 1.14 1.10 1.06 0.96 0.95 0.93 0.85 0.85 0.85 0.92 0.93 0.84 0.75 0.68 0.63 0.63
2.94 2.85 2.64 2.15 1.93 1.92 1.69 1.23 1.13 1.11 1.05 0.83 0.74 0.97 1.48 2.13 2.01 1.75 1.46 1.31 1.39 1.25 1.10 1.02 0.99 1.03 1.13 1.29 1.28 1.22 1.24 1.35 1.30 1.10 1.03 1.06 0.91 0.82 0.80 0.81 0.85 0.86 0.94 0.98 0.89 0.76 0.65 0.64 0.67
2.25 2.52 2.54 2.37 2.15 2.19 1.53 1.06 0.94 0.91 0.92 0.61 0.62 0.94 1.34 1.76 1.62 1.58 1.40 1.29 1.30 1.16 1.02 0.90 0.84 0.87 0.95 1.08 1.16 1.12 1.10 1.17 1.17 1.09 1.06 1.07 0.87 0.76 0.76 0.79 0.91 0.97 0.98 1.05 0.99 0.79 0.70 0.68 0.72
2.01 2.46 2.79 2.70 2.13 1.95 1.36 1.18 0.86 0.75 0.70 0.61 0.61 0.70 0.92 1.01 1.07 1.23 1.20 1.12 1.14 1.02 0.92 0.85 0.78 0.80 0.86 0.92 0.95 1.05 1.06 1.08 1.00 0.93 0.97 0.87 0.68 0.66 0.71 0.73 0.98 1.11 1.21 1.21 1.13 0.99 0.85 0.76 0.71
2.15 2.49 2.51 2.00 1.50 1.41 1.36 1.21 0.84 0.88 0.92 0.81 0.74 0.73 0.96 1.04 1.03 1.15 1.10 1.04 1.01 1.00 0.90 0.82 0.82 0.79 0.77 0.77 1.02 1.16 1.02 0.93 0.81 0.84 0.82 0.80 0.78 0.78 0.62 0.69 0.92 0.96 1.05 1.12 1.09 1.04 0.87 0.67 0.54
1.59 1.89 1.79 1.48 1.10 1.03 1.12 0.96 0.73 0.95 1.13 0.89 0.84 0.85 0.98 1.08 1.07 1.08 1.11 1.05 0.96 0.96 0.87 0.76 0.78 0.70 0.64 0.75 0.93 1.10 1.14 1.11 1.07 0.92 0.91 0.86 0.78 0.69 0.57 0.60 0.71 0.76 0.83 0.80 0.87 0.86 0.65 0.55 0.55
1.34 1.27 1.29 1.28 0.95 1.00 1.06 0.87 0.89 0.98 0.98 0.72 0.68 0.72 0.87 0.97 0.98 1.00 1.02 0.98 0.84 0.82 0.85 0.74 0.70 0.61 0.55 0.54 0.64 0.80 0.85 0.85 0.86 0.87 0.80 0.81 0.82 0.76 0.67 0.67 0.75 0.80 0.75 0.80 0.85 0.84 0.71 0.62 0.53
1.40 1.29 1.14 1.12 0.98 0.99 1.00 0.88 0.91 1.02 0.80 0.65 0.69 0.75 0.92 0.97 0.92 0.85 0.82 0.78 0.76 0.75 0.75 0.74 0.69 0.64 0.68 0.65 0.60 0.58 0.63 0.69 0.74 0.81 0.73 0.67 0.70 0.74 0.77 0.74 0.82 0.79 0.77 0.80 0.82 0.69 0.67 0.66 0.56
1.21 1.19 1.24 1.22 1.12 0.97 1.04 0.93 0.92 1.13 0.86 0.76 0.76 0.79 0.87 0.95 0.87 0.73 0.69 0.63 0.57 0.68 0.77 0.76 0.67 0.68 0.66 0.62 0.63 0.65 0.64 0.67 0.70 0.74 0.67 0.60 0.61 0.63 0.75 0.76 0.83 0.76 0.80 0.88 0.80 0.72 0.74 0.74 0.64
0.98 1.27 1.38 1.23 1.14 1.08 1.09 1.23 1.14 1.12 0.95 0.86 0.80 0.80 0.86 0.92 0.90 0.80 0.70 0.62 0.53 0.56 0.68 0.76 0.72 0.73 0.69 0.66 0.69 0.71 0.70 0.65 0.67 0.70 0.63 0.58 0.62 0.63 0.75 0.80 0.80 0.79 0.83 0.86 0.89 0.90 0.84 0.75 0.68
1.16 1.43 1.68 1.28 1.15 1.06 1.22 1.52 1.28 1.19 1.10 0.95 0.75 0.76 0.79 0.82 0.85 0.88 0.79 0.66 0.56 0.51 0.58 0.69 0.70 0.74 0.76 0.76 0.78 0.78 0.73 0.72 0.74 0.76 0.71 0.66 0.65 0.68 0.87 0.93 0.82 0.88 0.99 1.04 1.09 1.06 0.97 0.87 0.84
1.52 1.55 1.47 1.29 1.06 0.96 1.12 1.28 1.22 1.20 1.16 1.02 0.75 0.64 0.66 0.68 0.72 0.79 0.75 0.69 0.59 0.54 0.53 0.57 0.64 0.83 0.85 0.80 0.87 0.89 0.87 0.93 0.94 0.94 0.90 0.85 0.82 0.89 1.06 1.13 1.05 1.03 1.19 1.18 1.08 1.13 1.15 1.07 1.10
1.28 1.11 1.03 1.11 0.94 0.92 1.05 1.02 1.10 1.11 1.04 0.93 0.77 0.63 0.60 0.61 0.60 0.58 0.55 0.60 0.55 0.51 0.47 0.51 0.61 0.74 0.84 0.97 1.06 1.14 1.15 1.16 1.28 1.34 1.31 1.13 1.08 1.13 1.29 1.38 1.35 1.31 1.45 1.46 1.34 1.46 1.47 1.38 1.44
0.83 0.83 0.89 0.87 0.73 0.83 0.92 0.91 1.00 0.98 0.94 0.79 0.68 0.59 0.54 0.52 0.54 0.48 0.42 0.45 0.46 0.40 0.39 0.44 0.61 0.77 0.92 1.02 1.16 1.41 1.57 1.67 1.67 1.68 1.73 1.64 1.44 1.53 1.64 1.61 1.84 1.92 1.91 1.91 1.86 1.99 2.03 1.78 1.61
0.76 0.79 0.82 0.77 0.64 0.72 0.80 0.86 0.90 0.86 0.79 0.64 0.58 0.52 0.46 0.45 0.47 0.44 0.36 0.34 0.34 0.31 0.32 0.37 0.51 0.76 0.99 1.19 1.37 1.56 1.87 2.04 2.04 2.12 2.04 1.98 1.86 1.88 1.80 1.88 2.10 2.16 2.28 2.37 2.22 2.36 2.45 2.14 1.85
0.68 0.68 0.70 0.70 0.72 0.73 0.74 0.90 0.94 0.91 0.76 0.59 0.49 0.44 0.40 0.34 0.37 0.38 0.34 0.30 0.25 0.26 0.26 0.30 0.43 0.66 0.96 1.25 1.50 1.70 1.93 2.19 2.28 2.19 2.16 2.18 2.24 2.27 2.15 2.11 2.24 2.27 2.35 2.56 2.61 2.56 2.68 2.61 2.27
0.77 0.49 0.47 0.52 0.66 0.84 0.72 1.03 0.94 0.87 0.77 0.62 0.53 0.46 0.41 0.37 0.35 0.34 0.32 0.32 0.27 0.27 0.27 0.31 0.44 0.60 0.79 1.05 1.37 1.63 1.88 2.19 2.27 2.25 2.24 2.28 2.37 2.44 2.38 2.33 2.40 2.41 2.38 2.51 2.60 2.57 2.80 3.00 2.74
0.59 0.38 0.41 0.51 0.55 0.62 0.57 0.81 0.86 0.70 0.76 0.68 0.61 0.53 0.45 0.40 0.37 0.33 0.32 0.32 0.34 0.33 0.33 0.41 0.52 0.65 0.82 1.04 1.35 1.68 1.86 2.01 2.22 2.25 2.16 2.11 2.18 2.18 2.14 2.25 2.41 2.42 2.41 2.42 2.60 2.71 2.90 2.93 2.85
0.42 0.43 0.45 0.49 0.55 0.68 0.45 0.60 0.77 0.69 0.64 0.63 0.59 0.57 0.47 0.37 0.37 0.38 0.42 0.43 0.41 0.45 0.49 0.57 0.67 0.84 0.97 1.05 1.17 1.34 1.54 1.81 1.94 2.05 2.09 2.12 2.13 2.01 1.91 2.01 2.11 2.20 2.26 2.25 2.30 2.45 2.61 2.80 2.95
0.39 0.59 0.80 0.80 0.79 0.69 0.34 0.48 0.61 0.52 0.47 0.53 0.53 0.53 0.50 0.46 0.47 0.54 0.63 0.58 0.55 0.58 0.68 0.75 0.83 0.89 0.92 0.89 0.94 1.05 1.21 1.43 1.55 1.64 1.84 1.93 1.97 1.93 1.87 1.84 1.90 1.97 2.02 2.12 2.29 2.28 2.33 2.51 2.71
0.41 0.52 0.80 0.88 0.75 0.59 0.46 0.60 0.61 0.49 0.43 0.46 0.48 0.47 0.46 0.52 0.59 0.73 0.84 0.84 0.79 0.79 0.81 0.80 0.83 0.78 0.76 0.77 0.83 0.88 0.93 1.08 1.18 1.26 1.41 1.55 1.55 1.53 1.51 1.58 1.67 1.81 1.90 1.99 2.14 2.19 2.16 2.24 2.30
0.36 0.33 0.33 0.49 0.47 0.55 0.56 0.66 0.65 0.47 0.41 0.44 0.48 0.48 0.49 0.60 0.73 0.89 1.05 1.10 1.00 0.93 0.89 0.86 0.88 0.82 0.73 0.72 0.79 0.84 0.89 0.90 0.92 0.97 0.96 1.05 1.13 1.15 1.19 1.26 1.39 1.59 1.72 1.77 1.87 2.02 2.02 2.08 2.08
0.25 0.27 0.34 0.57 0.76 0.80 0.66 0.71 0.79 0.62 0.50 0.51 0.58 0.66 0.74 0.88 0.94 1.06 1.16 1.16 1.13 1.15 1.11 0.95 0.89 0.89 0.81 0.88 0.87 0.82 0.81 0.78 0.77 0.81 0.86 0.88 0.95 1.04 1.14 1.16 1.22 1.35 1.44 1.54 1.70 1.84 1.93 1.96 1.94
0.22 0.28 0.42 0.62 0.70 0.94 1.06 1.06 0.80 0.65 0.64 0.65 0.71 0.91 0.97 1.05 1.14 1.15 1.23 1.19 1.07 1.07 1.05 1.02 0.96 0.91 0.92 0.93 0.93 0.81 0.80 0.81 0.79 0.77 0.80 0.89 0.96 1.05 1.11 1.14 1.18 1.21 1.29 1.35 1.46 1.61 1.76 1.79 1.80
0.33 0.45 0.61 0.96 0.94 0.87 1.16 1.28 0.86 0.71 0.73 0.76 0.77 0.76 0.76 0.95 1.09 1.12 1.20 1.14 0.98 0.94 0.84 0.87 0.95 0.95 1.01 1.01 0.92 0.83 0.85 0.86 0.90 0.88 0.84 0.87 0.91 0.92 1.01 1.12 1.11 1.10 1.15 1.24 1.35 1.44 1.50 1.61 1.58

GEFSSGP_prec_meanprecacc_228.txt.gz
Total_Precipitation_Accumulation
1.61 1.89 2.74 3.46 3.51 2.87 2.35 1.89 1.62 1.63 1.49 1.13 0.82 0.84 1.17 1.52 1.86 2.37 2.48 2.14 1.57 1.42 1.59 2.10 2.45 2.22 1.86 1.74 1.83 1.88 1.84 1.83 1.82 1.74 1.76 1.47 1.32 1.24 1.11 1.03 0.95 0.87 0.80 0.83 0.94 0.94 0.83 0.66 0.65
1.38 2.33 3.34 3.88 3.24 2.34 2.12 1.82 1.77 1.62 1.23 0.89 0.66 0.67 0.92 0.90 0.77 1.45 2.47 2.41 1.63 1.43 1.45 1.71 2.26 2.09 1.84 1.79 1.89 1.94 1.89 1.85 1.89 1.78 1.58 1.32 1.27 1.22 1.20 1.18 1.11 0.98 0.86 0.81 0.86 0.88 0.81 0.75 0.73
1.55 2.78 3.49 3.53 2.38 2.02 2.10 1.95 1.82 1.37 0.96 0.81 0.71 0.60 0.79 1.07 1.09 1.52 2.23 1.83 1.40 1.37 1.44 1.85 2.14 1.99 1.83 1.68 1.74 1.86 1.82 1.79 1.85 1.75 1.47 1.25 1.15 1.15 1.18 1.21 1.16 1.05 1.01 0.89 0.86 0.84 0.78 0.77 0.70
1.92 2.94 3.09 2.60 2.06 1.72 1.72 1.84 1.58 1.28 0.98 0.67 0.64 0.65 0.69 1.18 1.37 1.40 1.46 1.37 1.21 1.25 1.32 1.62 1.95 1.94 1.80 1.62 1.64 1.53 1.43 1.43 1.56 1.54 1.36 1.20 1.20 1.15 1.14 1.10 1.07 1.06 1.04 0.98 0.91 0.85 0.80 0.77 0.72
2.52 3.10 2.85 2.28 1.90 1.72 1.57 1.49 1.37 1.35 1.22 0.83 0.68 0.79 0.99 1.46 1.56 1.49 1.36 1.29 1.18 1.17 1.13 1.35 1.64 1.68 1.67 1.64 1.58 1.51 1.36 1.36 1.37 1.33 1.25 1.15 1.14 1.13 1.10 1.00 0.91 0.91 0.95 0.93 0.88 0.82 0.77 0.69 0.68
2.88 2.94 2.85 2.43 1.95 1.78 1.69 1.43 1.24 1.25 1.15 0.90 0.78 0.97 1.40 1.91 1.92 1.90 1.49 1.42 1.39 1.16 1.06 1.14 1.34 1.36 1.31 1.34 1.55 1.58 1.32 1.34 1.30 1.17 1.13 1.10 1.00 1.00 0.98 0.89 0.87 0.89 0.98 0.98 0.88 0.79 0.72 0.66 0.67
2.96 2.86 2.64 2.16 1.95 1.97 1.76 1.30 1.18 1.15 1.10 0.85 0.75 0.98 1.50 2.17 2.05 1.79 1.47 1.32 1.41 1.27 1.12 1.05 1.02 1.05 1.16 1.32 1.30 1.24 1.26 1.38 1.32 1.12 1.05 1.08 0.93 0.84 0.81 0.83 0.88 0.89 0.97 1.01 0.93 0.80 0.69 0.68 0.73
2.27 2.52 2.55 2.38 2.17 2.24 1.60 1.13 0.99 0.94 0.96 0.63 0.64 0.95 1.37 1.82 1.67 1.60 1.42 1.30 1.30 1.16 1.03 0.91 0.85 0.88 0.96 1.10 1.18 1.14 1.12 1.20 1.19 1.10 1.08 1.09 0.89 0.78 0.78 0.82 0.94 1.00 1.00 1.07 1.01 0.84 0.76 0.75 0.79
2.02 2.46 2.79 2.71 2.14 2.01 1.41 1.24 0.94 0.79 0.72 0.63 0.63 0.71 0.93 1.03 1.09 1.25 1.22 1.13 1.15 1.02 0.93 0.85 0.78 0.80 0.86 0.92 0.96 1.07 1.09 1.10 1.02 0.94 0.97 0.88 0.69 0.68 0.73 0.78 1.05 1.17 1.25 1.25 1.17 1.06 0.94 0.85 0.78
2.16 2.49 2.52 2.01 1.52 1.45 1.39 1.25 0.91 0.94 0.96 0.82 0.75 0.75 0.97 1.05 1.04 1.17 1.11 1.05 1.01 1.00 0.90 0.82 0.82 0.79 0.77 0.77 1.02 1.16 1.03 0.94 0.83 0.85 0.83 0.80 0.79 0.80 0.67 0.77 0.98 1.00 1.09 1.15 1.14 1.13 0.97 0.76 0.61
1.60 1.89 1.80 1.50 1.11 1.05 1.14 0.99 0.76 0.99 1.15 0.90 0.85 0.88 1.00 1.11 1.10 1.10 1.13 1.06 0.96 0.96 0.87 0.77 0.78 0.70 0.64 0.75 0.93 1.10 1.14 1.11 1.07 0.93 0.92 0.87 0.79 0.71 0.61 0.63 0.72 0.77 0.85 0.84 0.93 0.96 0.78 0.63 0.60
1.34 1.28 1.30 1.30 0.96 1.02 1.09 0.89 0.90 1.00 1.00 0.72 0.69 0.74 0.89 0.99 1.01 1.03 1.04 1.00 0.84 0.83 0.86 0.74 0.71 0.61 0.56 0.54 0.64 0.80 0.85 0.85 0.86 0.87 0.81 0.82 0.85 0.80 0.70 0.70 0.77 0.80 0.78 0.87 0.91 0.93 0.80 0.67 0.56
1.41 1.30 1.16 1.14 0.99 1.01 1.02 0.90 0.92 1.04 0.82 0.66 0.70 0.77 0.95 1.00 0.95 0.88 0.84 0.80 0.77 0.77 0.76 0.75 0.70 0.64 0.68 0.65 0.60 0.58 0.63 0.69 0.74 0.81 0.73 0.69 0.73 0.79 0.80 0.76 0.83 0.80 0.81 0.89 0.87 0.74 0.72 0.68 0.58
1.22 1.21 1.26 1.23 1.13 0.98 1.05 0.94 0.93 1.15 0.89 0.77 0.76 0.80 0.89 0.97 0.90 0.77 0.76 0.68 0.60 0.70 0.78 0.77 0.67 0.68 0.67 0.62 0.64 0.65 0.64 0.67 0.70 0.74 0.67 0.61 0.62 0.66 0.78 0.78 0.85 0.77 0.83 0.95 0.85 0.75 0.76 0.76 0.66
1.01 1.29 1.39 1.24 1.15 1.09 1.10 1.24 1.16 1.14 0.96 0.87 0.81 0.81 0.87 0.93 0.92 0.82 0.74 0.66 0.56 0.57 0.69 0.77 0.73 0.74 0.70 0.66 0.69 0.72 0.71 0.65 0.67 0.70 0.63 0.58 0.63 0.64 0.76 0.82 0.82 0.80 0.85 0.89 0.92 0.91 0.85 0.76 0.69
1.19 1.45 1.69 1.29 1.16 1.07 1.23 1.53 1.28 1.20 1.11 0.96 0.76 0.77 0.80 0.82 0.86 0.90 0.81 0.69 0.59 0.54 0.60 0.70 0.71 0.76 0.77 0.76 0.78 0.78 0.73 0.72 0.75 0.76 0.71 0.66 0.66 0.69 0.88 0.93 0.83 0.89 1.00 1.06 1.11 1.07 0.98 0.88 0.85
1.55 1.57 1.49 1.30 1.07 0.97 1.13 1.28 1.23 1.20 1.17 1.03 0.76 0.65 0.67 0.68 0.72 0.80 0.77 0.72 0.62 0.57 0.56 0.59 0.65 0.84 0.85 0.81 0.87 0.89 0.87 0.93 0.95 0.94 0.90 0.85 0.82 0.89 1.06 1.13 1.05 1.03 1.19 1.19 1.08 1.13 1.17 1.08 1.10
1.30 1.12 1.05 1.12 0.95 0.93 1.05 1.02 1.10 1.11 1.05 0.94 0.78 0.64 0.61 0.61 0.61 0.60 0.56 0.63 0.58 0.55 0.51 0.54 0.62 0.76 0.85 0.98 1.06 1.14 1.15 1.16 1.28 1.35 1.31 1.13 1.08 1.13 1.29 1.39 1.35 1.31 1.45 1.46 1.35 1.46 1.47 1.39 1.45
0.85 0.84 0.90 0.88 0.75 0.84 0.93 0.92 1.00 0.99 0.94 0.79 0.69 0.60 0.55 0.54 0.56 0.51 0.44 0.48 0.50 0.44 0.43 0.47 0.63 0.80 0.94 1.03 1.17 1.41 1.57 1.67 1.67 1.68 1.73 1.64 1.44 1.53 1.64 1.62 1.84 1.92 1.91 1.91 1.86 1.99 2.03 1.78 1.62
0.78 0.82 0.84 0.78 0.65 0.73 0.81 0.86 0.91 0.87 0.79 0.65 0.58 0.53 0.46 0.46 0.48 0.45 0.37 0.36 0.37 0.35 0.36 0.41 0.56 0.80 1.02 1.21 1.38 1.56 1.88 2.04 2.05 2.12 2.04 1.98 1.86 1.88 1.80 1.88 2.10 2.16 2.28 2.37 2.22 2.36 2.46 2.14 1.85
0.70 0.70 0.72 0.71 0.73 0.74 0.75 0.91 0.95 0.92 0.76 0.59 0.49 0.44 0.41 0.35 0.37 0.39 0.35 0.31 0.27 0.28 0.30 0.33 0.46 0.69 0.98 1.27 1.52 1.71 1.94 2.19 2.29 2.19 2.16 2.18 2.24 2.27 2.16 2.11 2.24 2.27 2.35 2.56 2.61 2.56 2.68 2.61 2.27
0.78 0.50 0.48 0.53 0.67 0.86 0.73 1.04 0.95 0.88 0.78 0.63 0.54 0.47 0.41 0.38 0.36 0.34 0.33 0.33 0.28 0.29 0.30 0.34 0.46 0.62 0.82 1.07 1.39 1.64 1.89 2.20 2.28 2.25 2.24 2.28 2.37 2.44 2.38 2.33 2.40 2.41 2.38 2.51 2.60 2.57 2.80 3.01 2.75
0.60 0.39 0.41 0.52 0.56 0.63 0.58 0.81 0.86 0.71 0.77 0.68 0.61 0.53 0.45 0.41 0.39 0.34 0.33 0.33 0.35 0.34 0.36 0.44 0.56 0.68 0.85 1.07 1.38 1.70 1.87 2.03 2.23 2.26 2.17 2.11 2.18 2.18 2.14 2.25 2.41 2.42 2.41 2.43 2.60 2.71 2.91 2.93 2.86
0.44 0.44 0.47 0.50 0.57 0.69 0.46 0.60 0.77 0.69 0.65 0.63 0.59 0.57 0.47 0.38 0.39 0.39 0.43 0.43 0.42 0.46 0.52 0.60 0.71 0.88 1.01 1.07 1.19 1.35 1.56 1.83 1.96 2.07 2.11 2.13 2.14 2.01 1.91 2.01 2.11 2.20 2.26 2.26 2.31 2.45 2.61 2.81 2.95
0.41 0.60 0.81 0.82 0.81 0.70 0.35 0.49 0.61 0.52 0.47 0.53 0.53 0.53 0.50 0.47 0.49 0.55 0.63 0.59 0.56 0.59 0.70 0.77 0.85 0.91 0.95 0.91 0.95 1.06 1.23 1.45 1.58 1.67 1.86 1.95 1.99 1.95 1.88 1.85 1.90 1.97 2.02 2.12 2.30 2.29 2.33 2.52 2.72
0.42 0.52 0.81 0.89 0.77 0.60 0.46 0.61 0.61 0.49 0.43 0.46 0.48 0.47 0.46 0.53 0.60 0.74 0.84 0.85 0.79 0.80 0.83 0.82 0.84 0.80 0.78 0.79 0.84 0.89 0.95 1.10 1.21 1.29 1.44 1.58 1.58 1.57 1.55 1.59 1.67 1.81 1.90 2.00 2.14 2.20 2.17 2.25 2.32
0.37 0.33 0.34 0.50 0.49 0.56 0.56 0.67 0.65 0.47 0.41 0.44 0.48 0.49 0.49 0.60 0.74 0.91 1.07 1.10 1.01 0.94 0.90 0.88 0.89 0.83 0.75 0.74 0.81 0.86 0.90 0.91 0.93 0.99 0.98 1.07 1.16 1.18 1.21 1.28 1.41 1.60 1.73 1.78 1.88 2.02 2.03 2.09 2.09
0.26 0.28 0.34 0.58 0.77 0.81 0.68 0.72 0.79 0.62 0.50 0.51 0.58 0.66 0.74 0.88 0.95 1.07 1.19 1.18 1.14 1.17 1.13 0.97 0.90 0.90 0.81 0.89 0.89 0.83 0.82 0.79 0.78 0.82 0.87 0.90 0.97 1.06 1.16 1.18 1.24 1.37 1.46 1.55 1.71 1.85 1.94 1.98 1.95
0.23 0.29 0.42 0.63 0.71 0.95 1.08 1.06 0.80 0.65 0.64 0.65 0.71 0.92 0.97 1.06 1.14 1.16 1.24 1.22 1.10 1.10 1.07 1.03 0.97 0.92 0.93 0.94 0.95 0.82 0.81 0.81 0.79 0.77 0.81 0.90 0.97 1.07 1.13 1.17 1.21 1.23 1.31 1.37 1.48 1.62 1.76 1.80 1.81
0.34 0.46 0.62 0.97 0.96 0.87 1.17 1.28 0.86 0.71 0.73 0.76 0.77 0.76 0.76 0.96 1.09 1.13 1.21 1.15 1.00 0.97 0.86 0.89 0.96 0.96 1.03 1.02 0.93 0.84 0.86 0.88 0.91 0.89 0.84 0.88 0.93 0.94 1.03 1.14 1.12 1.12 1.17 1.25 1.36 1.45 1.51 1.62 1.59

GEFSSGP_prec_meanprecacc_234.txt.gz
Total_Precipitation_Accumulation
1.63 1.92 2.77 3.48 3.54 2.90 2.37 1.93 1.66 1.69 1.54 1.15 0.85 0.87 1.19 1.53 1.89 2.40 2.52 2.17 1.59 1.44 1.63 2.16 2.54 2.32 1.97 1.85 1.94 2.01 1.91 1.87 1.87 1.81 1.83 1.54 1.39 1.31 1.17 1.07 1.01 0.94 0.86 0.86 0.99 1.00 0.90 0.73 0.73
1.41 2.36 3.36 3.90 3.27 2.36 2.14 1.85 1.82 1.66 1.26 0.91 0.69 0.72 0.94 0.91 0.78 1.48 2.55 2.47 1.65 1.44 1.47 1.75 2.33 2.18 1.95 1.89 1.99 2.02 1.94 1.90 1.93 1.83 1.63 1.37 1.33 1.28 1.25 1.23 1.17 1.04 0.90 0.85 0.90 0.93 0.88 0.81 0.83
1.58 2.80 3.50 3.54 2.40 2.04 2.12 1.98 1.86 1.40 0.98 0.84 0.74 0.64 0.83 1.09 1.10 1.54 2.33 1.90 1.42 1.38 1.47 1.91 2.23 2.07 1.91 1.75 1.81 1.91 1.85 1.83 1.89 1.80 1.53 1.31 1.21 1.20 1.23 1.27 1.21 1.12 1.06 0.94 0.90 0.87 0.82 0.81 0.78
1.93 2.95 3.10 2.62 2.08 1.74 1.74 1.87 1.62 1.30 0.99 0.70 0.66 0.69 0.72 1.20 1.39 1.42 1.50 1.40 1.23 1.26 1.37 1.72 2.03 1.99 1.87 1.69 1.68 1.56 1.47 1.49 1.61 1.59 1.42 1.26 1.26 1.22 1.21 1.18 1.12 1.13 1.12 1.04 0.95 0.88 0.84 0.82 0.76
2.53 3.10 2.87 2.30 1.93 1.74 1.59 1.52 1.41 1.39 1.24 0.85 0.71 0.82 1.02 1.49 1.60 1.53 1.38 1.31 1.20 1.20 1.17 1.41 1.69 1.74 1.73 1.69 1.60 1.53 1.40 1.42 1.43 1.38 1.31 1.23 1.22 1.20 1.14 1.04 0.95 0.96 1.02 1.00 0.94 0.87 0.81 0.74 0.72
2.90 2.95 2.86 2.45 1.98 1.82 1.74 1.47 1.27 1.28 1.17 0.92 0.81 0.99 1.43 1.94 1.97 1.98 1.54 1.45 1.42 1.18 1.10 1.19 1.40 1.44 1.37 1.38 1.58 1.62 1.36 1.39 1.35 1.22 1.18 1.17 1.07 1.04 1.02 0.91 0.91 0.94 1.02 1.02 0.94 0.86 0.78 0.73 0.72
2.97 2.88 2.66 2.18 1.98 2.03 1.82 1.34 1.21 1.18 1.13 0.87 0.77 1.00 1.53 2.21 2.14 1.90 1.53 1.36 1.44 1.30 1.17 1.10 1.06 1.10 1.21 1.38 1.34 1.27 1.30 1.42 1.36 1.16 1.10 1.12 0.97 0.87 0.84 0.86 0.91 0.93 1.02 1.06 0.97 0.86 0.77 0.76 0.78
2.27 2.53 2.56 2.39 2.20 2.30 1.65 1.19 1.03 0.97 0.98 0.64 0.65 0.98 1.40 1.89 1.78 1.68 1.45 1.32 1.33 1.19 1.07 0.94 0.87 0.92 1.00 1.13 1.21 1.18 1.17 1.24 1.23 1.14 1.13 1.13 0.92 0.80 0.81 0.84 0.97 1.04 1.04 1.12 1.06 0.89 0.81 0.79 0.83
2.02 2.47 2.80 2.72 2.16 2.04 1.44 1.31 1.00 0.83 0.74 0.64 0.64 0.74 0.96 1.10 1.17 1.29 1.25 1.15 1.16 1.03 0.94 0.87 0.78 0.81 0.88 0.94 0.98 1.09 1.12 1.13 1.05 0.96 0.99 0.91 0.72 0.71 0.76 0.81 1.10 1.21 1.30 1.28 1.20 1.09 0.96 0.87 0.81
2.17 2.50 2.54 2.02 1.53 1.46 1.41 1.29 0.97 1.01 1.01 0.84 0.76 0.77 1.00 1.08 1.07 1.19 1.14 1.07 1.02 1.01 0.91 0.83 0.82 0.79 0.77 0.78 1.03 1.17 1.03 0.95 0.85 0.87 0.84 0.82 0.82 0.86 0.73 0.80 1.01 1.04 1.11 1.16 1.15 1.14 0.99 0.78 0.64
1.60 1.90 1.81 1.51 1.12 1.06 1.15 1.01 0.80 1.07 1.23 0.94 0.87 0.90 1.03 1.14 1.11 1.11 1.14 1.07 0.97 0.97 0.88 0.77 0.79 0.71 0.64 0.76 0.93 1.10 1.14 1.11 1.07 0.93 0.93 0.88 0.81 0.74 0.63 0.64 0.73 0.78 0.86 0.85 0.94 0.98 0.80 0.66 0.62
1.35 1.29 1.31 1.31 0.97 1.03 1.10 0.90 0.93 1.04 1.06 0.77 0.71 0.76 0.92 1.02 1.04 1.04 1.05 1.00 0.86 0.84 0.87 0.75 0.71 0.62 0.56 0.54 0.64 0.80 0.85 0.85 0.86 0.87 0.81 0.83 0.87 0.85 0.73 0.72 0.78 0.81 0.79 0.88 0.93 0.95 0.85 0.70 0.59
1.42 1.31 1.17 1.15 1.00 1.01 1.04 0.92 0.94 1.06 0.86 0.71 0.74 0.79 0.97 1.03 0.98 0.90 0.85 0.81 0.78 0.79 0.77 0.75 0.71 0.65 0.69 0.65 0.61 0.59 0.63 0.69 0.74 0.81 0.74 0.69 0.75 0.83 0.82 0.77 0.84 0.82 0.84 0.92 0.89 0.77 0.78 0.73 0.61
1.23 1.22 1.27 1.23 1.13 0.99 1.06 0.95 0.95 1.17 0.93 0.82 0.79 0.82 0.91 0.99 0.93 0.80 0.78 0.70 0.62 0.72 0.79 0.78 0.68 0.69 0.68 0.63 0.64 0.66 0.65 0.67 0.70 0.75 0.67 0.62 0.63 0.67 0.79 0.79 0.87 0.82 0.89 0.98 0.86 0.79 0.81 0.81 0.69
1.02 1.30 1.41 1.25 1.16 1.10 1.11 1.26 1.17 1.16 0.99 0.91 0.84 0.83 0.91 0.98 0.95 0.86 0.78 0.72 0.61 0.61 0.71 0.78 0.74 0.75 0.72 0.68 0.70 0.72 0.71 0.65 0.67 0.71 0.63 0.59 0.64 0.64 0.77 0.83 0.86 0.87 0.91 0.93 0.94 0.94 0.88 0.80 0.72
1.21 1.47 1.72 1.31 1.17 1.07 1.25 1.55 1.29 1.21 1.14 0.99 0.79 0.79 0.82 0.84 0.89 0.93 0.84 0.72 0.65 0.59 0.62 0.71 0.71 0.77 0.79 0.77 0.79 0.78 0.73 0.72 0.75 0.76 0.71 0.67 0.66 0.69 0.88 0.94 0.85 0.92 1.03 1.09 1.12 1.09 1.00 0.90 0.87
1.57 1.59 1.51 1.31 1.09 0.98 1.15 1.30 1.23 1.22 1.20 1.05 0.78 0.67 0.68 0.69 0.74 0.82 0.79 0.74 0.66 0.61 0.59 0.61 0.66 0.85 0.86 0.82 0.88 0.90 0.88 0.93 0.95 0.94 0.90 0.85 0.82 0.89 1.06 1.14 1.05 1.04 1.20 1.20 1.09 1.14 1.18 1.09 1.11
1.31 1.14 1.07 1.14 0.97 0.94 1.06 1.03 1.10 1.11 1.06 0.95 0.80 0.66 0.63 0.63 0.63 0.60 0.57 0.65 0.61 0.58 0.54 0.56 0.64 0.77 0.87 1.00 1.07 1.15 1.16 1.17 1.29 1.35 1.31 1.14 1.08 1.13 1.29 1.39 1.35 1.31 1.45 1.47 1.35 1.48 1.49 1.40 1.46
0.85 0.85 0.92 0.90 0.76 0.85 0.94 0.92 1.01 0.99 0.95 0.80 0.70 0.61 0.57 0.55 0.57 0.51 0.44 0.49 0.52 0.47 0.47 0.51 0.65 0.82 0.95 1.05 1.18 1.42 1.58 1.68 1.69 1.68 1.73 1.64 1.45 1.53 1.64 1.62 1.85 1.92 1.91 1.92 1.87 2.01 2.05 1.80 1.63
0.78 0.83 0.85 0.80 0.66 0.74 0.82 0.87 0.92 0.87 0.80 0.65 0.58 0.53 0.47 0.46 0.48 0.45 0.37 0.36 0.39 0.39 0.40 0.46 0.59 0.82 1.04 1.23 1.40 1.58 1.89 2.05 2.05 2.12 2.05 1.98 1.86 1.88 1.80 1.88 2.11 2.17 2.29 2.39 2.24 2.38 2.48 2.16 1.86
0.71 0.71 0.73 0.72 0.75 0.75 0.76 0.91 0.96 0.92 0.77 0.59 0.49 0.44 0.41 0.36 0.38 0.39 0.35 0.31 0.28 0.30 0.33 0.39 0.49 0.71 1.00 1.29 1.53 1.73 1.95 2.21 2.29 2.20 2.16 2.18 2.24 2.28 2.16 2.11 2.25 2.28 2.36 2.58 2.62 2.57 2.69 2.63 2.28
0.79 0.50 0.48 0.54 0.69 0.88 0.74 1.05 0.95 0.88 0.78 0.63 0.54 0.47 0.42 0.38 0.37 0.35 0.33 0.34 0.29 0.30 0.34 0.40 0.49 0.63 0.84 1.10 1.41 1.65 1.90 2.22 2.30 2.27 2.25 2.29 2.37 2.44 2.39 2.33 2.40 2.42 2.39 2.53 2.61 2.58 2.81 3.03 2.77
0.61 0.39 0.42 0.53 0.58 0.65 0.59 0.82 0.87 0.71 0.77 0.68 0.61 0.53 0.45 0.42 0.40 0.35 0.34 0.34 0.36 0.36 0.40 0.49 0.58 0.70 0.86 1.09 1.40 1.72 1.89 2.05 2.24 2.27 2.18 2.12 2.19 2.19 2.15 2.25 2.41 2.43 2.42 2.44 2.61 2.72 2.92 2.94 2.88
0.44 0.45 0.47 0.51 0.58 0.71 0.47 0.61 0.78 0.69 0.65 0.64 0.60 0.57 0.48 0.39 0.40 0.41 0.44 0.44 0.43 0.48 0.55 0.66 0.73 0.90 1.03 1.09 1.21 1.37 1.58 1.85 1.97 2.08 2.12 2.14 2.15 2.02 1.92 2.02 2.11 2.20 2.27 2.26 2.31 2.46 2.62 2.82 2.97
0.42 0.61 0.83 0.84 0.83 0.72 0.36 0.50 0.62 0.52 0.47 0.53 0.53 0.53 0.50 0.47 0.50 0.57 0.64 0.60 0.57 0.61 0.72 0.81 0.88 0.94 0.98 0.93 0.96 1.08 1.24 1.47 1.60 1.68 1.88 1.96 2.00 1.95 1.89 1.85 1.91 1.98 2.02 2.12 2.30 2.30 2.34 2.53 2.73
0.42 0.53 0.83 0.91 0.79 0.62 0.48 0.62 0.62 0.49 0.43 0.46 0.48 0.47 0.47 0.53 0.61 0.75 0.85 0.85 0.80 0.81 0.84 0.84 0.87 0.82 0.80 0.82 0.86 0.90 0.96 1.12 1.23 1.31 1.46 1.59 1.58 1.57 1.55 1.60 1.68 1.82 1.91 2.00 2.15 2.21 2.17 2.25 2.32
0.38 0.34 0.35 0.52 0.50 0.58 0.58 0.68 0.65 0.47 0.41 0.44 0.48 0.49 0.50 0.61 0.74 0.92 1.07 1.10 1.01 0.95 0.91 0.90 0.92 0.85 0.77 0.78 0.85 0.87 0.91 0.92 0.94 1.00 1.00 1.08 1.16 1.19 1.22 1.28 1.41 1.61 1.73 1.78 1.89 2.04 2.04 2.09 2.09
0.26 0.29 0.35 0.60 0.79 0.83 0.69 0.73 0.80 0.62 0.50 0.51 0.58 0.67 0.75 0.89 0.96 1.08 1.20 1.19 1.14 1.17 1.13 0.97 0.92 0.93 0.84 0.90 0.91 0.85 0.83 0.79 0.78 0.83 0.88 0.90 0.97 1.06 1.16 1.18 1.25 1.37 1.47 1.56 1.72 1.86 1.95 1.98 1.95
0.23 0.29 0.43 0.64 0.72 0.96 1.09 1.08 0.81 0.65 0.64 0.65 0.71 0.92 0.97 1.06 1.15 1.18 1.25 1.23 1.11 1.11 1.07 1.04 0.98 0.95 0.95 0.96 0.96 0.84 0.82 0.82 0.79 0.78 0.82 0.91 0.98 1.07 1.13 1.17 1.21 1.23 1.32 1.37 1.48 1.63 1.78 1.80 1.81
0.34 0.46 0.63 0.98 0.97 0.88 1.18 1.29 0.87 0.71 0.73 0.76 0.77 0.76 0.77 0.96 1.10 1.14 1.21 1.16 1.02 0.99 0.87 0.89 0.97 0.97 1.04 1.03 0.95 0.86 0.88 0.89 0.92 0.89 0.85 0.89 0.93 0.94 1.03 1.14 1.13 1.12 1.17 1.26 1.36 1.45 1.52 1.63 1.59

GEFSSGP_prec_meanprecacc_240.txt.gz
Total_Precipitation_Accumulation
1.65 1.95 2.81 3.55 3.69 3.05 2.49 2.04 1.74 1.76 1.56 1.16 0.85 0.87 1.21 1.59 1.95 2.46 2.57 2.22 1.65 1.48 1.67 2.20 2.57 2.36 2.00 1.89 1.99 2.06 1.97 1.94 1.93 1.87 1.90 1.59 1.45 1.38 1.23 1.11 1.05 0.98 0.90 0.92 1.06 1.07 0.97 0.83 0.82
1.42 2.38 3.41 4.00 3.43 2.51 2.26 1.97 1.92 1.71 1.27 0.91 0.69 0.74 0.96 0.93 0.79 1.51 2.63 2.54 1.68 1.47 1.51 1.79 2.38 2.23 2.00 1.94 2.04 2.05 1.97 1.95 1.97 1.88 1.69 1.42 1.39 1.34 1.29 1.26 1.21 1.09 0.95 0.90 0.96 0.99 1.00 0.99 0.93
1.58 2.82 3.55 3.65 2.52 2.17 2.25 2.10 1.93 1.41 0.98 0.84 0.74 0.65 0.85 1.11 1.13 1.58 2.41 1.98 1.44 1.40 1.50 1.94 2.28 2.13 1.95 1.79 1.84 1.93 1.87 1.86 1.94 1.85 1.57 1.34 1.24 1.23 1.26 1.32 1.27 1.18 1.11 1.00 0.96 0.92 0.91 0.98 0.94
1.95 2.98 3.15 2.72 2.18 1.85 1.85 1.97 1.67 1.33 1.00 0.70 0.67 0.70 0.74 1.22 1.41 1.45 1.55 1.44 1.27 1.30 1.40 1.73 2.05 2.03 1.89 1.71 1.71 1.57 1.49 1.52 1.66 1.64 1.47 1.29 1.28 1.24 1.24 1.24 1.19 1.19 1.15 1.08 1.00 0.92 0.87 0.86 0.81
2.56 3.15 2.95 2.39 2.01 1.84 1.67 1.57 1.43 1.42 1.27 0.87 0.72 0.85 1.07 1.53 1.63 1.56 1.42 1.34 1.24 1.24 1.20 1.42 1.72 1.77 1.75 1.71 1.62 1.55 1.41 1.46 1.48 1.43 1.37 1.28 1.26 1.24 1.20 1.09 0.99 1.01 1.05 1.04 0.98 0.91 0.85 0.78 0.76
2.94 3.00 2.96 2.55 2.06 1.91 1.79 1.49 1.29 1.31 1.20 0.93 0.82 1.03 1.49 2.02 2.03 2.03 1.60 1.51 1.48 1.23 1.13 1.21 1.43 1.47 1.39 1.41 1.60 1.63 1.37 1.42 1.39 1.27 1.23 1.24 1.15 1.13 1.08 0.94 0.93 0.96 1.03 1.05 0.97 0.90 0.82 0.77 0.76
3.01 2.93 2.75 2.26 2.08 2.13 1.89 1.37 1.24 1.23 1.17 0.90 0.79 1.04 1.59 2.30 2.21 1.97 1.61 1.40 1.47 1.34 1.20 1.12 1.07 1.12 1.23 1.40 1.36 1.28 1.31 1.44 1.40 1.21 1.14 1.17 1.02 0.91 0.87 0.88 0.94 0.95 1.04 1.08 1.00 0.90 0.81 0.79 0.81
2.29 2.57 2.62 2.47 2.29 2.41 1.73 1.22 1.06 1.02 1.01 0.65 0.67 1.03 1.46 1.97 1.85 1.73 1.49 1.34 1.34 1.22 1.09 0.96 0.88 0.93 1.02 1.15 1.23 1.21 1.19 1.27 1.27 1.19 1.17 1.16 0.95 0.82 0.84 0.87 1.01 1.07 1.08 1.15 1.09 0.91 0.84 0.81 0.85
2.03 2.52 2.87 2.80 2.24 2.13 1.48 1.35 1.04 0.85 0.76 0.65 0.67 0.79 1.02 1.14 1.21 1.33 1.28 1.17 1.18 1.04 0.96 0.88 0.79 0.83 0.90 0.96 0.99 1.11 1.14 1.16 1.08 0.99 1.03 0.95 0.75 0.73 0.78 0.83 1.13 1.25 1.32 1.31 1.23 1.11 0.98 0.89 0.83
2.18 2.57 2.61 2.08 1.58 1.52 1.45 1.34 1.01 1.05 1.04 0.86 0.78 0.78 1.03 1.11 1.10 1.23 1.19 1.10 1.05 1.02 0.92 0.83 0.83 0.81 0.79 0.79 1.04 1.19 1.04 0.96 0.86 0.89 0.85 0.84 0.84 0.88 0.74 0.81 1.03 1.05 1.12 1.17 1.17 1.16 1.01 0.81 0.66
1.61 1.95 1.85 1.54 1.14 1.08 1.18 1.03 0.82 1.12 1.29 0.99 0.90 0.92 1.06 1.17 1.15 1.15 1.18 1.10 0.98 0.97 0.88 0.78 0.80 0.73 0.67 0.78 0.94 1.12 1.15 1.12 1.09 0.94 0.94 0.90 0.82 0.76 0.64 0.65 0.74 0.79 0.87 0.87 0.96 0.99 0.82 0.67 0.63
1.36 1.31 1.34 1.33 0.97 1.05 1.12 0.91 0.94 1.07 1.13 0.84 0.75 0.80 0.96 1.06 1.07 1.07 1.07 1.02 0.87 0.86 0.89 0.77 0.74 0.65 0.58 0.55 0.65 0.80 0.85 0.86 0.87 0.89 0.82 0.84 0.88 0.86 0.74 0.73 0.79 0.82 0.81 0.90 0.95 0.98 0.87 0.71 0.59
1.43 1.34 1.19 1.15 1.00 1.02 1.06 0.94 0.96 1.10 0.91 0.76 0.79 0.83 1.01 1.07 1.03 0.94 0.87 0.83 0.81 0.81 0.80 0.77 0.74 0.69 0.71 0.66 0.61 0.59 0.63 0.69 0.75 0.82 0.74 0.69 0.75 0.84 0.83 0.79 0.86 0.84 0.86 0.94 0.91 0.79 0.80 0.75 0.63
1.24 1.24 1.27 1.24 1.13 0.99 1.08 0.97 0.97 1.21 0.96 0.84 0.83 0.87 0.95 1.02 0.97 0.84 0.81 0.73 0.66 0.76 0.82 0.80 0.72 0.73 0.70 0.64 0.65 0.66 0.65 0.67 0.70 0.75 0.68 0.62 0.64 0.68 0.80 0.81 0.90 0.85 0.91 0.99 0.88 0.80 0.83 0.83 0.71
1.02 1.31 1.43 1.26 1.16 1.10 1.13 1.29 1.19 1.18 1.01 0.94 0.88 0.88 0.95 1.01 0.98 0.89 0.82 0.75 0.63 0.63 0.74 0.82 0.77 0.78 0.74 0.69 0.70 0.72 0.71 0.66 0.67 0.71 0.64 0.59 0.64 0.66 0.79 0.87 0.91 0.90 0.93 0.94 0.95 0.95 0.90 0.83 0.75
1.22 1.51 1.77 1.34 1.17 1.08 1.27 1.59 1.32 1.23 1.15 1.01 0.83 0.82 0.84 0.86 0.90 0.96 0.87 0.74 0.66 0.61 0.65 0.74 0.73 0.78 0.80 0.79 0.79 0.78 0.73 0.72 0.75 0.77 0.72 0.67 0.67 0.70 0.91 0.98 0.90 0.95 1.05 1.11 1.15 1.11 1.03 0.94 0.91
1.60 1.65 1.57 1.34 1.10 1.00 1.17 1.34 1.25 1.22 1.22 1.07 0.80 0.68 0.71 0.72 0.75 0.83 0.81 0.75 0.66 0.61 0.60 0.63 0.67 0.86 0.87 0.84 0.89 0.90 0.88 0.94 0.95 0.95 0.91 0.85 0.82 0.90 1.07 1.15 1.07 1.06 1.23 1.22 1.12 1.17 1.22 1.14 1.15
1.34 1.16 1.09 1.17 0.99 0.96 1.08 1.05 1.12 1.12 1.08 0.96 0.81 0.66 0.65 0.65 0.65 0.62 0.58 0.65 0.62 0.59 0.55 0.57 0.64 0.78 0.87 1.00 1.08 1.16 1.16 1.17 1.29 1.35 1.31 1.14 1.08 1.13 1.29 1.39 1.35 1.32 1.46 1.48 1.37 1.50 1.52 1.44 1.48
0.86 0.86 0.93 0.91 0.77 0.87 0.96 0.94 1.02 0.99 0.95 0.81 0.70 0.61 0.58 0.56 0.58 0.52 0.45 0.50 0.52 0.48 0.48 0.52 0.66 0.82 0.96 1.07 1.19 1.44 1.59 1.69 1.69 1.69 1.74 1.65 1.45 1.53 1.65 1.62 1.85 1.92 1.92 1.93 1.89 2.04 2.09 1.83 1.66
0.79 0.83 0.86 0.81 0.67 0.77 0.85 0.88 0.92 0.87 0.80 0.65 0.59 0.54 0.48 0.48 0.50 0.46 0.37 0.37 0.39 0.39 0.42 0.48 0.60 0.83 1.05 1.25 1.42 1.60 1.91 2.06 2.06 2.13 2.06 1.99 1.87 1.89 1.80 1.88 2.12 2.18 2.30 2.41 2.26 2.41 2.52 2.19 1.90
0.72 0.72 0.74 0.74 0.76 0.77 0.78 0.93 0.96 0.92 0.77 0.59 0.50 0.45 0.41 0.36 0.39 0.40 0.36 0.31 0.28 0.31 0.36 0.42 0.51 0.72 1.01 1.31 1.55 1.74 1.96 2.22 2.31 2.21 2.17 2.19 2.26 2.29 2.17 2.12 2.26 2.29 2.38 2.61 2.65 2.59 2.73 2.68 2.33
0.81 0.51 0.48 0.54 0.70 0.91 0.76 1.08 0.97 0.88 0.78 0.63 0.54 0.47 0.42 0.39 0.38 0.36 0.34 0.34 0.30 0.31 0.36 0.44 0.53 0.65 0.85 1.11 1.42 1.67 1.92 2.24 2.31 2.28 2.26 2.30 2.38 2.45 2.39 2.34 2.41 2.44 2.41 2.55 2.62 2.59 2.85 3.09 2.83
0.62 0.39 0.42 0.53 0.58 0.66 0.60 0.85 0.90 0.72 0.78 0.69 0.61 0.54 0.46 0.42 0.41 0.36 0.34 0.34 0.36 0.37 0.41 0.52 0.62 0.72 0.88 1.10 1.41 1.73 1.92 2.08 2.27 2.28 2.18 2.12 2.19 2.19 2.15 2.26 2.42 2.44 2.43 2.45 2.62 2.74 2.95 2.99 2.94
0.44 0.45 0.48 0.52 0.60 0.73 0.48 0.64 0.82 0.71 0.66 0.64 0.60 0.57 0.48 0.39 0.40 0.42 0.45 0.45 0.44 0.49 0.56 0.68 0.77 0.92 1.04 1.10 1.21 1.38 1.60 1.88 2.00 2.10 2.13 2.15 2.16 2.02 1.92 2.02 2.12 2.21 2.27 2.27 2.33 2.49 2.65 2.85 3.00
0.42 0.64 0.87 0.88 0.87 0.75 0.36 0.52 0.67 0.52 0.47 0.53 0.53 0.53 0.50 0.47 0.50 0.57 0.65 0.60 0.58 0.62 0.74 0.83 0.91 0.96 1.00 0.95 0.97 1.08 1.26 1.50 1.63 1.71 1.90 1.98 2.02 1.98 1.90 1.86 1.91 1.98 2.03 2.13 2.31 2.31 2.36 2.55 2.74
0.44 0.55 0.88 0.97 0.84 0.66 0.50 0.65 0.65 0.50 0.43 0.46 0.48 0.47 0.47 0.53 0.61 0.75 0.85 0.85 0.80 0.82 0.85 0.85 0.90 0.85 0.82 0.84 0.87 0.91 0.97 1.13 1.25 1.33 1.49 1.62 1.62 1.60 1.57 1.61 1.69 1.82 1.91 2.00 2.16 2.22 2.18 2.26 2.33
0.39 0.35 0.36 0.54 0.54 0.62 0.61 0.71 0.67 0.48 0.41 0.44 0.48 0.49 0.50 0.61 0.75 0.93 1.08 1.12 1.02 0.96 0.91 0.91 0.94 0.88 0.79 0.81 0.87 0.89 0.92 0.94 0.96 1.01 1.02 1.10 1.19 1.21 1.23 1.29 1.42 1.61 1.74 1.79 1.89 2.05 2.04 2.10 2.10
0.27 0.30 0.37 0.63 0.84 0.88 0.73 0.75 0.82 0.64 0.50 0.51 0.59 0.67 0.76 0.89 0.97 1.10 1.21 1.20 1.15 1.18 1.14 0.98 0.93 0.95 0.86 0.93 0.95 0.87 0.84 0.80 0.80 0.84 0.89 0.91 0.98 1.07 1.16 1.18 1.25 1.38 1.47 1.56 1.72 1.87 1.95 1.99 1.96
0.24 0.30 0.45 0.68 0.76 1.02 1.14 1.11 0.82 0.65 0.64 0.65 0.72 0.93 0.99 1.08 1.16 1.18 1.26 1.24 1.12 1.11 1.08 1.05 0.99 0.97 0.97 0.98 0.99 0.87 0.83 0.83 0.80 0.79 0.83 0.91 0.98 1.07 1.14 1.18 1.21 1.23 1.32 1.38 1.49 1.63 1.78 1.81 1.82
0.35 0.47 0.64 1.01 0.99 0.90 1.22 1.32 0.88 0.72 0.74 0.76 0.77 0.78 0.79 0.99 1.12 1.14 1.22 1.17 1.03 1.00 0.88 0.91 0.99 0.99 1.06 1.06 0.97 0.88 0.90 0.91 0.93 0.90 0.85 0.89 0.94 0.94 1.03 1.15 1.13 1.12 1.17 1.26 1.36 1.46 1.52 1.63 1.60

GEFSSGP_prec_meanprecacc_246.txt.gz
Total_Precipitation_Accumulation
1.66 2.00 2.87 3.64 3.80 3.15 2.59 2.14 1.81 1.83 1.60 1.17 0.86 0.88 1.23 1.61 1.97 2.47 2.62 2.32 1.73 1.51 1.70 2.24 2.63 2.39 2.03 1.91 2.01 2.09 2.00 1.98 1.98 1.91 1.95 1.63 1.51 1.43 1.28 1.15 1.10 1.05 0.98 0.96 1.11 1.15 1.06 0.89 0.85
1.44 2.41 3.46 4.11 3.53 2.58 2.35 2.09 2.03 1.79 1.30 0.92 0.69 0.75 0.97 0.94 0.81 1.54 2.68 2.63 1.75 1.49 1.53 1.81 2.41 2.27 2.02 1.96 2.05 2.07 2.00 1.98 2.01 1.91 1.73 1.45 1.42 1.39 1.34 1.31 1.26 1.14 1.00 0.96 1.02 1.12 1.14 1.05 0.98
1.60 2.85 3.62 3.75 2.60 2.24 2.33 2.20 2.03 1.46 1.00 0.84 0.75 0.65 0.86 1.13 1.15 1.61 2.46 2.02 1.46 1.41 1.51 1.97 2.30 2.16 1.97 1.80 1.84 1.95 1.90 1.90 1.98 1.87 1.60 1.37 1.27 1.27 1.30 1.36 1.31 1.23 1.15 1.05 1.00 0.99 1.05 1.08 0.99
1.97 3.02 3.22 2.79 2.25 1.93 1.94 2.06 1.74 1.38 1.04 0.71 0.67 0.71 0.75 1.24 1.43 1.49 1.59 1.46 1.28 1.30 1.40 1.75 2.07 2.04 1.91 1.72 1.72 1.60 1.53 1.58 1.72 1.68 1.50 1.33 1.32 1.28 1.28 1.28 1.24 1.22 1.17 1.09 1.02 0.95 0.92 0.93 0.87
2.58 3.19 3.00 2.44 2.09 1.94 1.80 1.67 1.50 1.48 1.31 0.89 0.72 0.86 1.08 1.56 1.66 1.60 1.45 1.36 1.25 1.25 1.20 1.44 1.73 1.78 1.76 1.72 1.63 1.56 1.44 1.50 1.52 1.47 1.40 1.31 1.29 1.28 1.23 1.13 1.03 1.03 1.07 1.05 1.00 0.94 0.88 0.82 0.81
2.96 3.03 3.01 2.60 2.16 2.01 1.92 1.61 1.36 1.37 1.24 0.95 0.83 1.03 1.50 2.06 2.09 2.07 1.62 1.53 1.49 1.24 1.13 1.22 1.45 1.49 1.40 1.41 1.61 1.65 1.40 1.45 1.43 1.31 1.28 1.27 1.20 1.18 1.13 0.97 0.95 0.97 1.05 1.07 1.00 0.94 0.86 0.81 0.81
3.04 2.95 2.79 2.33 2.19 2.22 2.02 1.47 1.34 1.31 1.21 0.93 0.80 1.05 1.61 2.35 2.28 2.01 1.63 1.42 1.49 1.36 1.21 1.13 1.08 1.13 1.24 1.40 1.38 1.32 1.37 1.50 1.45 1.26 1.20 1.22 1.05 0.94 0.90 0.91 0.96 0.97 1.06 1.10 1.03 0.94 0.85 0.83 0.85
2.32 2.60 2.66 2.52 2.35 2.49 1.82 1.30 1.15 1.10 1.05 0.68 0.69 1.04 1.49 2.02 1.91 1.78 1.52 1.35 1.36 1.22 1.10 0.97 0.89 0.94 1.02 1.16 1.25 1.23 1.23 1.32 1.32 1.22 1.21 1.21 0.99 0.85 0.88 0.92 1.05 1.08 1.10 1.17 1.11 0.95 0.87 0.85 0.88
2.06 2.57 2.92 2.85 2.28 2.19 1.54 1.43 1.10 0.91 0.80 0.67 0.68 0.81 1.06 1.19 1.26 1.39 1.33 1.19 1.19 1.05 0.96 0.88 0.79 0.83 0.91 0.97 1.01 1.13 1.16 1.19 1.11 1.02 1.05 0.97 0.77 0.75 0.81 0.86 1.17 1.27 1.35 1.33 1.25 1.14 1.01 0.91 0.85
2.20 2.61 2.68 2.15 1.61 1.56 1.50 1.39 1.07 1.12 1.09 0.89 0.80 0.80 1.06 1.13 1.13 1.29 1.26 1.16 1.08 1.03 0.92 0.84 0.83 0.81 0.80 0.80 1.05 1.20 1.04 0.96 0.87 0.89 0.86 0.84 0.85 0.90 0.76 0.83 1.07 1.08 1.15 1.19 1.18 1.18 1.04 0.82 0.67
1.64 1.99 1.91 1.61 1.16 1.11 1.23 1.07 0.85 1.18 1.35 1.03 0.93 0.94 1.07 1.19 1.17 1.19 1.23 1.14 1.01 0.99 0.89 0.78 0.80 0.74 0.68 0.79 0.95 1.13 1.16 1.12 1.09 0.95 0.95 0.90 0.83 0.77 0.66 0.67 0.77 0.81 0.88 0.88 0.97 1.01 0.84 0.69 0.64
1.38 1.36 1.37 1.37 0.99 1.06 1.16 0.94 0.97 1.09 1.16 0.87 0.80 0.84 0.98 1.08 1.09 1.10 1.12 1.07 0.91 0.89 0.92 0.78 0.76 0.68 0.60 0.56 0.65 0.81 0.86 0.86 0.88 0.89 0.83 0.84 0.89 0.87 0.76 0.74 0.80 0.84 0.82 0.92 0.97 0.99 0.88 0.72 0.60
1.44 1.39 1.22 1.17 1.01 1.03 1.07 0.95 0.97 1.11 0.91 0.77 0.84 0.89 1.05 1.11 1.07 0.97 0.90 0.87 0.85 0.86 0.84 0.79 0.77 0.73 0.73 0.69 0.62 0.59 0.64 0.70 0.76 0.84 0.76 0.70 0.76 0.85 0.84 0.80 0.87 0.85 0.88 0.95 0.93 0.80 0.81 0.75 0.63
1.25 1.28 1.31 1.26 1.14 1.00 1.09 0.99 0.99 1.22 0.97 0.85 0.86 0.92 1.00 1.05 1.00 0.87 0.83 0.77 0.69 0.79 0.86 0.83 0.76 0.77 0.71 0.66 0.66 0.67 0.65 0.67 0.71 0.76 0.69 0.64 0.65 0.70 0.81 0.82 0.91 0.87 0.93 1.01 0.89 0.82 0.85 0.84 0.72
1.04 1.34 1.46 1.29 1.18 1.12 1.14 1.31 1.22 1.19 1.03 0.97 0.90 0.90 0.98 1.03 0.99 0.92 0.84 0.79 0.68 0.67 0.78 0.86 0.82 0.83 0.76 0.70 0.71 0.73 0.71 0.66 0.67 0.72 0.65 0.60 0.65 0.66 0.80 0.88 0.92 0.91 0.94 0.96 0.97 0.97 0.92 0.84 0.76
1.24 1.54 1.81 1.36 1.19 1.09 1.28 1.62 1.34 1.24 1.17 1.05 0.85 0.85 0.88 0.90 0.92 0.97 0.88 0.76 0.70 0.65 0.68 0.78 0.79 0.81 0.81 0.79 0.80 0.79 0.74 0.73 0.75 0.77 0.72 0.67 0.67 0.71 0.92 0.99 0.91 0.96 1.07 1.12 1.16 1.12 1.04 0.96 0.95
1.63 1.68 1.61 1.36 1.11 1.01 1.19 1.36 1.27 1.23 1.23 1.09 0.83 0.71 0.74 0.76 0.79 0.85 0.82 0.76 0.69 0.65 0.63 0.65 0.70 0.88 0.89 0.85 0.90 0.91 0.90 0.96 0.97 0.96 0.92 0.86 0.83 0.91 1.08 1.16 1.08 1.07 1.23 1.23 1.13 1.18 1.23 1.18 1.20
1.35 1.18 1.11 1.18 1.00 0.97 1.10 1.07 1.12 1.13 1.09 0.98 0.83 0.69 0.69 0.70 0.68 0.65 0.61 0.67 0.63 0.61 0.57 0.59 0.67 0.79 0.89 1.02 1.09 1.17 1.19 1.20 1.32 1.37 1.33 1.15 1.10 1.15 1.30 1.41 1.38 1.33 1.47 1.50 1.38 1.52 1.58 1.48 1.51
0.87 0.88 0.94 0.91 0.77 0.88 0.98 0.95 1.03 1.00 0.96 0.82 0.72 0.63 0.60 0.58 0.60 0.56 0.50 0.54 0.54 0.50 0.49 0.54 0.68 0.84 0.97 1.08 1.21 1.45 1.61 1.71 1.71 1.71 1.75 1.66 1.47 1.54 1.67 1.65 1.88 1.94 1.93 1.95 1.91 2.08 2.12 1.84 1.67
0.80 0.85 0.88 0.83 0.68 0.77 0.86 0.89 0.93 0.89 0.81 0.66 0.59 0.54 0.49 0.48 0.52 0.48 0.39 0.38 0.40 0.40 0.43 0.50 0.63 0.85 1.07 1.27 1.44 1.61 1.92 2.08 2.08 2.14 2.07 2.00 1.88 1.89 1.82 1.91 2.15 2.21 2.32 2.43 2.28 2.43 2.53 2.21 1.91
0.74 0.74 0.76 0.75 0.77 0.78 0.80 0.95 0.97 0.93 0.78 0.60 0.50 0.45 0.42 0.37 0.40 0.41 0.36 0.32 0.29 0.32 0.37 0.44 0.53 0.75 1.04 1.32 1.57 1.75 1.97 2.23 2.31 2.21 2.18 2.19 2.26 2.29 2.17 2.13 2.27 2.31 2.41 2.64 2.68 2.62 2.75 2.69 2.34
0.83 0.52 0.50 0.55 0.71 0.93 0.78 1.09 0.98 0.90 0.80 0.64 0.55 0.48 0.43 0.40 0.38 0.36 0.34 0.35 0.30 0.31 0.36 0.45 0.54 0.67 0.87 1.13 1.44 1.68 1.92 2.25 2.32 2.28 2.26 2.31 2.38 2.45 2.40 2.35 2.43 2.46 2.45 2.58 2.65 2.63 2.88 3.11 2.85
0.64 0.40 0.43 0.55 0.59 0.67 0.61 0.86 0.91 0.74 0.80 0.70 0.62 0.54 0.46 0.42 0.41 0.36 0.34 0.35 0.37 0.38 0.42 0.53 0.63 0.74 0.90 1.13 1.44 1.75 1.92 2.08 2.27 2.29 2.19 2.13 2.19 2.19 2.15 2.26 2.42 2.45 2.46 2.47 2.65 2.77 2.98 3.02 2.97
0.46 0.46 0.49 0.54 0.61 0.74 0.48 0.65 0.83 0.73 0.69 0.67 0.61 0.58 0.48 0.40 0.41 0.42 0.45 0.45 0.44 0.49 0.58 0.70 0.78 0.94 1.06 1.13 1.24 1.40 1.61 1.89 2.01 2.11 2.14 2.16 2.16 2.03 1.93 2.04 2.13 2.22 2.29 2.30 2.35 2.51 2.67 2.88 3.02
0.44 0.65 0.90 0.90 0.88 0.78 0.39 0.54 0.70 0.57 0.49 0.54 0.54 0.55 0.51 0.48 0.51 0.58 0.65 0.61 0.58 0.62 0.75 0.85 0.93 0.98 1.02 0.98 0.99 1.11 1.28 1.51 1.64 1.72 1.91 1.99 2.04 1.99 1.91 1.87 1.92 1.99 2.04 2.14 2.32 2.33 2.39 2.57 2.76
0.45 0.57 0.90 1.00 0.87 0.70 0.55 0.71 0.72 0.52 0.44 0.46 0.49 0.48 0.48 0.54 0.62 0.76 0.86 0.86 0.81 0.82 0.87 0.87 0.91 0.86 0.84 0.87 0.90 0.95 1.00 1.16 1.27 1.34 1.50 1.63 1.63 1.61 1.58 1.61 1.70 1.83 1.92 2.01 2.17 2.23 2.20 2.28 2.34
0.40 0.36 0.38 0.57 0.58 0.66 0.64 0.76 0.71 0.48 0.41 0.45 0.49 0.50 0.51 0.62 0.76 0.94 1.10 1.13 1.04 0.97 0.93 0.92 0.96 0.90 0.81 0.83 0.90 0.93 0.95 0.96 0.98 1.04 1.04 1.12 1.20 1.22 1.24 1.30 1.43 1.62 1.75 1.79 1.90 2.06 2.05 2.11 2.11
0.28 0.31 0.39 0.65 0.88 0.92 0.77 0.82 0.86 0.65 0.50 0.52 0.60 0.69 0.77 0.91 0.98 1.11 1.24 1.24 1.18 1.20 1.16 1.00 0.96 0.98 0.89 0.95 0.97 0.91 0.87 0.83 0.83 0.88 0.93 0.93 1.00 1.08 1.17 1.19 1.25 1.38 1.48 1.56 1.73 1.87 1.96 2.00 1.97
0.25 0.31 0.46 0.69 0.78 1.05 1.21 1.17 0.84 0.67 0.65 0.65 0.73 0.96 1.02 1.12 1.18 1.20 1.28 1.28 1.16 1.15 1.11 1.08 1.03 1.00 1.00 1.00 1.01 0.90 0.87 0.86 0.84 0.83 0.86 0.93 0.99 1.08 1.14 1.18 1.21 1.24 1.33 1.38 1.49 1.63 1.78 1.81 1.82
0.36 0.48 0.65 1.01 1.00 0.92 1.25 1.36 0.89 0.73 0.75 0.77 0.79 0.80 0.84 1.05 1.16 1.16 1.23 1.19 1.06 1.03 0.92 0.96 1.03 1.03 1.10 1.10 1.01 0.92 0.94 0.95 0.97 0.93 0.88 0.90 0.94 0.95 1.04 1.15 1.13 1.12 1.17 1.26 1.36 1.46 1.53 1.64 1.60

GEFSSGP_prec_meanprecacc_252.txt.gz
Total_Precipitation_Accumulation
1.68 2.02 2.89 3.68 3.83 3.16 2.61 2.17 1.83 1.85 1.64 1.21 0.88 0.91 1.24 1.62 1.98 2.48 2.63 2.35 1.77 1.53 1.72 2.30 2.73 2.48 2.09 1.96 2.05 2.14 2.07 2.04 2.03 1.96 1.99 1.67 1.54 1.49 1.36 1.23 1.16 1.11 1.05 1.03 1.21 1.24 1.12 0.95 0.91
1.46 2.43 3.49 4.13 3.55 2.59 2.37 2.13 2.07 1.82 1.32 0.96 0.70 0.76 0.99 0.96 0.82 1.54 2.70 2.66 1.78 1.51 1.54 1.85 2.49 2.35 2.07 2.01 2.10 2.12 2.05 2.03 2.05 1.96 1.77 1.50 1.47 1.44 1.42 1.38 1.32 1.19 1.07 1.03 1.15 1.24 1.20 1.10 1.04
1.62 2.87 3.65 3.78 2.62 2.26 2.35 2.23 2.07 1.51 1.02 0.87 0.76 0.66 0.87 1.14 1.16 1.62 2.48 2.04 1.48 1.43 1.53 2.00 2.36 2.21 2.01 1.84 1.88 2.00 1.97 1.95 2.02 1.91 1.64 1.42 1.31 1.31 1.36 1.41 1.36 1.25 1.18 1.10 1.09 1.12 1.12 1.14 1.06
1.98 3.04 3.23 2.80 2.26 1.95 1.96 2.09 1.78 1.43 1.07 0.73 0.68 0.72 0.76 1.24 1.44 1.50 1.62 1.49 1.29 1.32 1.43 1.79 2.12 2.10 1.95 1.75 1.75 1.67 1.62 1.65 1.79 1.73 1.54 1.37 1.37 1.31 1.32 1.33 1.27 1.25 1.20 1.12 1.07 1.02 1.00 0.99 0.94
2.60 3.20 3.01 2.45 2.10 1.97 1.84 1.72 1.55 1.53 1.35 0.91 0.73 0.86 1.09 1.57 1.67 1.63 1.49 1.38 1.26 1.27 1.24 1.47 1.76 1.83 1.80 1.75 1.67 1.61 1.49 1.55 1.59 1.54 1.46 1.36 1.35 1.33 1.29 1.18 1.05 1.05 1.10 1.08 1.07 1.04 0.95 0.89 0.87
2.96 3.03 3.01 2.61 2.18 2.06 1.98 1.67 1.42 1.43 1.28 0.98 0.84 1.04 1.51 2.08 2.11 2.10 1.67 1.55 1.50 1.26 1.15 1.23 1.47 1.53 1.45 1.45 1.66 1.70 1.46 1.52 1.49 1.38 1.34 1.33 1.26 1.24 1.18 1.01 0.97 0.99 1.08 1.11 1.05 1.02 0.92 0.86 0.86
3.04 2.96 2.79 2.34 2.21 2.27 2.07 1.52 1.41 1.38 1.26 0.97 0.82 1.06 1.63 2.38 2.31 2.04 1.66 1.43 1.50 1.37 1.22 1.13 1.10 1.16 1.28 1.44 1.45 1.40 1.43 1.56 1.50 1.31 1.24 1.26 1.09 0.98 0.93 0.95 1.01 1.02 1.09 1.14 1.07 0.99 0.91 0.88 0.90
2.32 2.61 2.67 2.53 2.37 2.52 1.85 1.34 1.19 1.16 1.11 0.70 0.70 1.05 1.51 2.06 1.95 1.83 1.54 1.37 1.37 1.23 1.10 0.98 0.90 0.95 1.04 1.17 1.28 1.28 1.29 1.37 1.36 1.26 1.25 1.25 1.03 0.89 0.92 0.96 1.12 1.14 1.14 1.21 1.15 1.00 0.94 0.92 0.94
2.06 2.57 2.93 2.85 2.29 2.21 1.56 1.45 1.14 0.96 0.86 0.71 0.71 0.83 1.09 1.22 1.32 1.44 1.35 1.21 1.22 1.06 0.97 0.90 0.81 0.84 0.91 0.98 1.02 1.14 1.18 1.22 1.14 1.05 1.09 0.99 0.78 0.76 0.84 0.89 1.21 1.33 1.40 1.38 1.29 1.18 1.06 0.97 0.91
2.21 2.61 2.68 2.16 1.62 1.57 1.51 1.41 1.11 1.17 1.14 0.93 0.83 0.82 1.08 1.16 1.18 1.34 1.29 1.18 1.09 1.04 0.94 0.85 0.85 0.82 0.81 0.80 1.06 1.20 1.05 0.97 0.87 0.90 0.87 0.85 0.86 0.91 0.77 0.86 1.12 1.14 1.19 1.23 1.21 1.21 1.07 0.85 0.69
1.64 2.00 1.91 1.62 1.17 1.13 1.25 1.08 0.87 1.20 1.37 1.06 0.97 0.96 1.09 1.21 1.20 1.23 1.27 1.19 1.04 1.00 0.90 0.80 0.83 0.76 0.69 0.79 0.95 1.13 1.16 1.13 1.09 0.95 0.95 0.91 0.84 0.78 0.67 0.68 0.79 0.82 0.90 0.89 0.99 1.02 0.86 0.70 0.66
1.38 1.36 1.38 1.38 1.00 1.08 1.18 0.96 0.99 1.12 1.17 0.89 0.82 0.87 1.00 1.10 1.11 1.11 1.14 1.12 0.96 0.92 0.94 0.80 0.78 0.69 0.61 0.57 0.66 0.81 0.86 0.86 0.88 0.90 0.83 0.84 0.90 0.87 0.76 0.75 0.81 0.85 0.83 0.93 0.97 1.00 0.89 0.72 0.61
1.45 1.40 1.23 1.18 1.02 1.04 1.08 0.97 0.99 1.12 0.93 0.79 0.86 0.93 1.08 1.13 1.08 0.98 0.92 0.90 0.90 0.91 0.88 0.83 0.79 0.75 0.75 0.70 0.63 0.60 0.64 0.70 0.76 0.84 0.77 0.71 0.77 0.85 0.84 0.80 0.88 0.87 0.90 0.96 0.94 0.81 0.82 0.77 0.64
1.26 1.29 1.32 1.27 1.16 1.02 1.10 0.99 0.99 1.23 0.98 0.87 0.88 0.97 1.05 1.08 1.02 0.89 0.85 0.80 0.73 0.84 0.91 0.87 0.80 0.79 0.72 0.68 0.67 0.68 0.66 0.68 0.71 0.78 0.72 0.64 0.66 0.70 0.81 0.82 0.92 0.89 0.94 1.02 0.91 0.84 0.86 0.84 0.73
1.04 1.35 1.47 1.30 1.20 1.13 1.15 1.32 1.23 1.20 1.04 0.98 0.91 0.93 1.05 1.07 1.01 0.93 0.86 0.82 0.72 0.71 0.83 0.91 0.88 0.87 0.78 0.71 0.72 0.74 0.72 0.66 0.68 0.73 0.66 0.61 0.66 0.67 0.80 0.88 0.92 0.92 0.94 0.97 0.99 0.98 0.92 0.84 0.77
1.25 1.54 1.82 1.37 1.20 1.10 1.29 1.62 1.35 1.25 1.18 1.06 0.86 0.86 0.91 0.94 0.94 0.99 0.89 0.78 0.73 0.69 0.71 0.81 0.82 0.86 0.84 0.81 0.82 0.80 0.75 0.74 0.76 0.78 0.73 0.68 0.68 0.72 0.93 1.00 0.91 0.96 1.07 1.13 1.17 1.13 1.04 0.97 0.95
1.64 1.69 1.61 1.37 1.12 1.03 1.20 1.36 1.28 1.25 1.24 1.10 0.84 0.73 0.76 0.78 0.82 0.87 0.83 0.77 0.70 0.68 0.66 0.68 0.72 0.91 0.92 0.87 0.93 0.93 0.91 0.97 0.98 0.96 0.92 0.86 0.83 0.91 1.09 1.17 1.09 1.08 1.24 1.24 1.14 1.19 1.24 1.19 1.22
1.36 1.19 1.12 1.19 1.01 0.98 1.11 1.07 1.13 1.14 1.10 0.98 0.84 0.71 0.72 0.72 0.71 0.67 0.62 0.68 0.64 0.62 0.60 0.63 0.69 0.82 0.92 1.05 1.11 1.18 1.20 1.21 1.32 1.37 1.33 1.15 1.10 1.15 1.31 1.42 1.39 1.35 1.49 1.51 1.40 1.53 1.59 1.50 1.53
0.88 0.88 0.94 0.93 0.79 0.90 0.98 0.95 1.04 1.02 0.98 0.83 0.72 0.64 0.64 0.62 0.64 0.59 0.53 0.55 0.55 0.51 0.51 0.57 0.71 0.86 1.00 1.11 1.22 1.46 1.61 1.72 1.72 1.71 1.75 1.66 1.47 1.55 1.67 1.66 1.89 1.96 1.95 1.97 1.92 2.09 2.15 1.87 1.70
0.82 0.86 0.89 0.84 0.69 0.79 0.87 0.90 0.95 0.90 0.82 0.67 0.60 0.55 0.51 0.49 0.53 0.51 0.42 0.40 0.42 0.43 0.45 0.51 0.65 0.87 1.09 1.30 1.46 1.63 1.93 2.09 2.09 2.15 2.07 2.00 1.88 1.90 1.82 1.91 2.15 2.21 2.33 2.44 2.29 2.45 2.55 2.23 1.93
0.75 0.75 0.78 0.76 0.78 0.79 0.81 0.96 0.99 0.94 0.79 0.61 0.50 0.45 0.42 0.37 0.41 0.42 0.38 0.33 0.30 0.32 0.38 0.46 0.56 0.77 1.06 1.36 1.59 1.77 1.99 2.23 2.32 2.22 2.18 2.20 2.26 2.29 2.17 2.13 2.28 2.32 2.42 2.65 2.69 2.64 2.76 2.70 2.35
0.84 0.54 0.51 0.56 0.72 0.93 0.79 1.10 0.98 0.90 0.80 0.64 0.55 0.48 0.43 0.40 0.39 0.36 0.34 0.35 0.30 0.32 0.37 0.46 0.57 0.70 0.91 1.17 1.48 1.72 1.96 2.27 2.33 2.29 2.27 2.31 2.39 2.45 2.40 2.35 2.43 2.47 2.47 2.59 2.66 2.64 2.89 3.12 2.86
0.65 0.41 0.44 0.56 0.60 0.67 0.61 0.86 0.91 0.74 0.80 0.71 0.63 0.55 0.47 0.43 0.41 0.36 0.35 0.35 0.37 0.38 0.42 0.54 0.65 0.76 0.92 1.16 1.47 1.78 1.96 2.13 2.31 2.31 2.20 2.13 2.20 2.19 2.15 2.27 2.43 2.46 2.47 2.48 2.66 2.78 2.99 3.03 2.98
0.46 0.47 0.50 0.55 0.61 0.74 0.49 0.65 0.83 0.74 0.70 0.68 0.62 0.58 0.49 0.40 0.42 0.43 0.46 0.46 0.45 0.50 0.58 0.71 0.80 0.96 1.08 1.16 1.27 1.43 1.64 1.92 2.04 2.12 2.15 2.17 2.17 2.03 1.93 2.04 2.13 2.23 2.30 2.31 2.37 2.53 2.70 2.90 3.04
0.44 0.66 0.91 0.91 0.89 0.78 0.39 0.55 0.71 0.60 0.51 0.54 0.55 0.55 0.52 0.49 0.52 0.59 0.66 0.62 0.59 0.63 0.76 0.86 0.94 0.99 1.04 1.00 1.01 1.12 1.29 1.53 1.65 1.73 1.92 2.00 2.05 2.00 1.92 1.87 1.93 2.00 2.05 2.16 2.34 2.36 2.42 2.60 2.80
0.45 0.58 0.92 1.01 0.87 0.71 0.57 0.74 0.74 0.53 0.44 0.47 0.49 0.48 0.48 0.55 0.63 0.78 0.88 0.88 0.82 0.84 0.88 0.88 0.92 0.87 0.87 0.89 0.91 0.96 1.02 1.17 1.29 1.35 1.51 1.64 1.65 1.63 1.59 1.62 1.70 1.84 1.93 2.02 2.17 2.25 2.23 2.31 2.37
0.41 0.37 0.38 0.58 0.59 0.67 0.65 0.76 0.71 0.48 0.41 0.45 0.50 0.50 0.52 0.65 0.77 0.95 1.11 1.15 1.06 0.99 0.94 0.94 0.98 0.92 0.84 0.87 0.94 0.96 0.97 0.98 1.00 1.06 1.06 1.13 1.22 1.23 1.25 1.30 1.44 1.63 1.75 1.80 1.90 2.07 2.06 2.12 2.12
0.28 0.31 0.39 0.65 0.88 0.92 0.77 0.82 0.87 0.65 0.51 0.52 0.60 0.70 0.78 0.92 0.98 1.12 1.24 1.25 1.20 1.22 1.18 1.02 0.98 1.01 0.93 1.01 1.02 0.94 0.90 0.86 0.86 0.90 0.95 0.95 1.02 1.11 1.19 1.20 1.26 1.39 1.49 1.57 1.73 1.88 1.96 2.00 1.97
0.25 0.31 0.46 0.69 0.78 1.06 1.21 1.18 0.85 0.68 0.65 0.66 0.73 0.98 1.05 1.13 1.20 1.21 1.29 1.28 1.18 1.16 1.12 1.10 1.05 1.02 1.04 1.05 1.07 0.95 0.91 0.90 0.87 0.86 0.89 0.97 1.03 1.13 1.17 1.21 1.24 1.26 1.35 1.40 1.50 1.64 1.79 1.82 1.83
0.37 0.49 0.65 1.02 1.01 0.93 1.25 1.36 0.90 0.74 0.76 0.78 0.79 0.83 0.90 1.10 1.19 1.18 1.24 1.20 1.07 1.04 0.93 0.97 1.04 1.05 1.12 1.13 1.05 0.97 1.01 1.01 1.02 0.98 0.92 0.95 0.99 0.99 1.07 1.18 1.15 1.15 1.19 1.27 1.38 1.47 1.54 1.64 1.61